GFSSE_prec_precacc_090.txt.gz
Total_Precipitation_Accumulation
0.50 0.47 0.13 0.14 0.06 0.02 0.00 0.00 0.00 0.00 0.00 0.00 0.00 0.00 0.00 0.00 0.00 0.00 0.00 0.00 0.00 0.01 0.02 0.02 0.01 0.01 0.04 0.07 0.03 0.02 0.03 0.01 0.02 0.08 0.16 0.29 0.26 0.18 0.14 0.12 0.09 0.09 0.24
1.09 0.73 0.87 0.36 0.08 0.04 0.01 0.01 0.00 0.00 0.00 0.00 0.00 0.00 0.00 0.00 0.00 0.00 0.00 0.01 0.01 0.02 0.02 0.02 0.02 0.02 0.03 0.03 0.01 0.01 0.00 0.01 0.02 0.09 0.20 0.30 0.25 0.17 0.12 0.10 0.10 0.13 0.22
1.61 1.09 1.15 1.28 0.66 0.30 0.10 0.03 0.01 0.00 0.01 0.00 0.00 0.00 0.01 0.01 0.00 0.00 0.00 0.01 0.00 0.01 0.02 0.02 0.03 0.05 0.03 0.01 0.00 0.00 0.00 0.00 0.02 0.06 0.18 0.13 0.10 0.15 0.12 0.07 0.11 0.11 0.12
1.05 0.70 1.40 1.48 1.14 0.79 0.44 0.16 0.04 0.01 0.01 0.00 0.00 0.01 0.00 0.01 0.01 0.00 0.02 0.01 0.01 0.01 0.03 0.03 0.05 0.05 0.02 0.00 0.00 0.00 0.00 0.00 0.00 0.03 0.06 0.11 0.13 0.18 0.10 0.08 0.12 0.08 0.06
1.00 0.51 0.91 1.32 1.38 1.02 0.60 0.36 0.16 0.07 0.03 0.01 0.01 0.01 0.00 0.00 0.00 0.06 0.07 0.01 0.02 0.04 0.05 0.07 0.08 0.05 0.01 0.00 0.00 0.00 0.00 0.00 0.00 0.03 0.02 0.13 0.12 0.19 0.14 0.10 0.08 0.08 0.08
1.33 0.98 0.91 1.46 1.78 2.22 1.41 0.76 0.42 0.20 0.05 0.05 0.05 0.01 0.02 0.01 0.06 0.17 0.18 0.13 0.14 0.09 0.12 0.14 0.12 0.04 0.00 0.00 0.00 0.00 0.00 0.00 0.00 0.01 0.06 0.12 0.13 0.10 0.14 0.12 0.07 0.11 0.09
2.24 2.01 1.35 2.09 2.88 4.08 4.60 3.34 2.23 1.26 0.75 0.49 0.50 0.63 0.42 0.30 0.47 0.37 0.24 0.25 0.30 0.23 0.16 0.12 0.07 0.04 0.00 0.00 0.00 0.00 0.00 0.00 0.00 0.00 0.05 0.13 0.21 0.07 0.09 0.15 0.06 0.09 0.12
3.15 2.80 2.71 2.23 2.69 3.63 5.96 6.17 5.52 5.61 3.44 1.60 1.16 1.09 1.13 0.89 0.59 0.37 0.21 0.17 0.15 0.13 0.14 0.05 0.03 0.02 0.00 0.00 0.00 0.00 0.00 0.00 0.00 0.00 0.03 0.03 0.04 0.02 0.02 0.05 0.08 0.08 0.11
5.65 5.53 4.88 3.86 2.97 2.28 2.98 4.30 4.64 4.16 4.48 3.87 2.67 1.67 1.99 1.31 0.96 0.51 0.27 0.19 0.15 0.12 0.09 0.05 0.02 0.00 0.00 0.00 0.00 0.00 0.00 0.00 0.00 0.00 0.00 0.01 0.03 0.03 0.06 0.05 0.08 0.10 0.08
8.06 7.51 5.81 4.85 3.14 1.52 1.88 2.17 2.50 3.79 2.73 2.27 3.07 2.62 2.02 1.44 1.05 0.78 0.55 0.44 0.28 0.16 0.07 0.06 0.03 0.00 0.00 0.00 0.00 0.00 0.00 0.00 0.00 0.00 0.00 0.01 0.02 0.03 0.05 0.04 0.04 0.05 0.04
6.02 6.49 6.27 4.34 2.99 1.51 0.99 1.09 1.10 2.21 2.80 2.37 1.20 2.00 1.98 1.36 1.01 0.78 0.64 0.55 0.65 0.50 0.18 0.09 0.08 0.01 0.00 0.00 0.00 0.00 0.00 0.00 0.00 0.00 0.00 0.01 0.01 0.01 0.02 0.01 0.01 0.02 0.03
3.37 3.56 5.21 4.44 3.07 2.19 1.64 1.18 0.77 1.10 1.99 2.61 1.59 1.01 1.25 1.08 0.73 0.52 0.47 0.43 0.54 0.69 0.49 0.31 0.15 0.06 0.02 0.02 0.02 0.01 0.00 0.00 0.00 0.00 0.00 0.01 0.01 0.01 0.01 0.00 0.00 0.01 0.02
1.24 1.55 2.35 3.59 4.08 3.12 1.90 1.37 0.73 0.85 1.56 2.59 2.30 0.95 0.91 0.98 0.79 0.36 0.28 0.35 0.42 0.55 0.49 0.59 0.25 0.10 0.02 0.01 0.01 0.01 0.00 0.00 0.00 0.00 0.00 0.01 0.01 0.01 0.01 0.01 0.01 0.01 0.01
0.71 0.94 1.78 2.17 2.19 2.50 2.55 1.40 0.80 0.50 1.11 1.85 2.34 1.00 0.86 0.67 0.76 0.32 0.09 0.16 0.29 0.20 0.22 0.40 0.26 0.08 0.01 0.01 0.01 0.01 0.00 0.00 0.00 0.00 0.00 0.00 0.02 0.01 0.02 0.02 0.02 0.02 0.01
0.45 0.69 1.26 1.07 0.83 0.96 1.66 1.91 1.09 0.70 0.80 1.43 2.15 0.94 0.49 0.39 0.56 0.30 0.09 0.13 0.16 0.09 0.13 0.17 0.19 0.06 0.02 0.01 0.01 0.00 0.00 0.00 0.00 0.00 0.00 0.00 0.01 0.02 0.01 0.03 0.04 0.02 0.01
0.38 0.57 0.91 0.73 0.71 0.58 0.80 1.33 1.64 0.86 0.83 1.18 1.53 1.00 0.50 0.33 0.33 0.29 0.16 0.15 0.09 0.07 0.08 0.10 0.09 0.04 0.02 0.00 0.00 0.00 0.00 0.00 0.00 0.00 0.00 0.00 0.00 0.01 0.02 0.02 0.05 0.03 0.02
0.41 0.62 1.01 1.26 0.61 0.72 0.70 0.89 1.35 1.11 0.66 0.77 1.14 1.16 0.73 0.43 0.18 0.24 0.26 0.30 0.15 0.05 0.11 0.15 0.11 0.05 0.02 0.01 0.01 0.00 0.00 0.00 0.00 0.00 0.00 0.00 0.00 0.01 0.02 0.03 0.03 0.04 0.04
0.37 0.45 0.95 1.52 0.94 0.83 0.80 0.90 1.03 1.01 0.81 0.55 0.74 0.87 0.54 0.42 0.23 0.22 0.27 0.36 0.23 0.10 0.07 0.11 0.09 0.04 0.02 0.00 0.00 0.00 0.00 0.00 0.00 0.00 0.00 0.00 0.00 0.00 0.01 0.01 0.02 0.02 0.02
0.22 0.33 0.72 1.02 1.17 1.13 0.86 0.88 0.78 0.71 0.89 0.61 0.65 0.57 0.51 0.48 0.26 0.14 0.23 0.30 0.20 0.13 0.09 0.05 0.06 0.03 0.01 0.00 0.00 0.00 0.00 0.00 0.00 0.00 0.00 0.00 0.00 0.00 0.00 0.00 0.00 0.01 0.01
0.17 0.43 0.85 0.92 1.06 1.05 0.67 0.47 0.45 0.58 0.68 0.76 0.66 0.46 0.56 0.54 0.32 0.16 0.19 0.38 0.41 0.25 0.18 0.06 0.07 0.04 0.01 0.00 0.00 0.00 0.00 0.00 0.00 0.00 0.00 0.00 0.00 0.00 0.00 0.00 0.00 0.00 0.00
0.12 0.37 0.48 0.71 0.87 0.58 0.36 0.31 0.35 0.40 0.47 0.76 0.75 0.44 0.52 0.67 0.48 0.29 0.18 0.24 0.49 0.39 0.22 0.07 0.05 0.04 0.03 0.02 0.01 0.00 0.00 0.00 0.00 0.00 0.00 0.00 0.00 0.01 0.01 0.00 0.00 0.00 0.00
0.16 0.38 0.47 0.32 0.27 0.28 0.27 0.15 0.10 0.13 0.23 0.55 0.83 0.52 0.58 0.67 0.57 0.47 0.22 0.14 0.26 0.31 0.23 0.07 0.04 0.05 0.03 0.02 0.00 0.04 0.04 0.03 0.00 0.00 0.00 0.00 0.01 0.02 0.02 0.01 0.00 0.00 0.00
0.08 0.12 0.24 0.13 0.07 0.06 0.09 0.10 0.07 0.09 0.23 0.91 1.26 0.93 0.66 0.65 0.54 0.53 0.36 0.25 0.18 0.30 0.17 0.08 0.04 0.04 0.21 0.09 0.02 0.12 0.17 0.10 0.12 0.02 0.00 0.00 0.00 0.00 0.02 0.05 0.03 0.01 0.00
0.03 0.05 0.23 0.13 0.06 0.04 0.05 0.05 0.06 0.11 0.15 0.49 1.01 0.92 0.67 0.80 0.67 0.47 0.51 0.40 0.24 0.24 0.19 0.14 0.10 0.08 0.49 0.33 0.20 0.09 0.08 0.14 0.28 0.22 0.06 0.00 0.00 0.01 0.01 0.04 0.04 0.03 0.03
0.06 0.08 0.20 0.16 0.16 0.08 0.11 0.15 0.25 0.19 0.14 0.22 0.86 1.17 0.92 0.87 0.80 0.55 0.57 0.55 0.37 0.28 0.33 0.40 0.34 0.29 0.48 0.33 0.12 0.15 0.09 0.10 0.17 0.15 0.11 0.09 0.03 0.03 0.03 0.03 0.03 0.03 0.07
0.02 0.11 0.19 0.15 0.21 0.23 0.27 0.22 0.21 0.29 0.17 0.18 0.50 1.02 1.29 1.09 0.95 0.78 0.66 0.54 0.47 0.37 0.35 0.41 0.45 0.57 0.62 0.54 0.39 0.37 0.31 0.26 0.19 0.20 0.16 0.16 0.21 0.15 0.10 0.05 0.01 0.02 0.07

GFSSE_prec_precacc_096.txt.gz
Total_Precipitation_Accumulation
0.50 0.47 0.13 0.14 0.06 0.02 0.00 0.00 0.00 0.00 0.00 0.00 0.00 0.00 0.00 0.00 0.00 0.00 0.00 0.00 0.00 0.02 0.02 0.02 0.02 0.05 0.05 0.09 0.08 0.03 0.03 0.02 0.03 0.08 0.16 0.30 0.26 0.18 0.16 0.23 0.16 0.11 0.29
1.09 0.73 0.87 0.36 0.08 0.04 0.01 0.01 0.00 0.00 0.00 0.00 0.00 0.00 0.00 0.00 0.00 0.00 0.00 0.01 0.01 0.02 0.02 0.02 0.02 0.02 0.03 0.05 0.01 0.01 0.00 0.01 0.02 0.09 0.21 0.32 0.27 0.18 0.17 0.24 0.15 0.17 0.27
1.61 1.09 1.15 1.28 0.66 0.30 0.10 0.03 0.01 0.00 0.01 0.00 0.00 0.00 0.01 0.01 0.00 0.01 0.01 0.01 0.00 0.02 0.03 0.02 0.03 0.05 0.03 0.01 0.00 0.00 0.00 0.00 0.02 0.09 0.30 0.15 0.13 0.18 0.17 0.15 0.15 0.18 0.16
1.05 0.70 1.40 1.48 1.14 0.79 0.44 0.16 0.04 0.01 0.01 0.00 0.00 0.04 0.04 0.04 0.06 0.04 0.03 0.01 0.02 0.04 0.06 0.03 0.07 0.06 0.03 0.00 0.00 0.00 0.00 0.00 0.01 0.06 0.18 0.15 0.17 0.24 0.13 0.20 0.20 0.11 0.07
1.00 0.51 0.91 1.32 1.38 1.02 0.60 0.36 0.16 0.07 0.03 0.01 0.01 0.02 0.00 0.03 0.04 0.09 0.12 0.02 0.03 0.09 0.14 0.13 0.18 0.07 0.01 0.00 0.00 0.00 0.00 0.01 0.03 0.12 0.10 0.26 0.16 0.31 0.25 0.23 0.25 0.20 0.14
1.33 0.98 0.91 1.46 1.78 2.22 1.41 0.76 0.42 0.20 0.05 0.05 0.05 0.01 0.04 0.05 0.14 0.36 0.34 0.17 0.18 0.19 0.28 0.26 0.23 0.05 0.00 0.00 0.00 0.00 0.00 0.03 0.07 0.19 0.11 0.22 0.17 0.18 0.19 0.16 0.08 0.12 0.10
2.24 2.01 1.35 2.09 2.88 4.08 4.60 3.34 2.23 1.26 0.75 0.50 0.50 0.63 0.44 0.32 0.68 0.57 0.31 0.30 0.35 0.31 0.28 0.29 0.15 0.04 0.00 0.00 0.00 0.00 0.01 0.08 0.08 0.17 0.20 0.25 0.26 0.13 0.11 0.15 0.06 0.09 0.12
3.15 2.80 2.71 2.23 2.69 3.63 5.96 6.17 5.52 5.61 3.44 1.61 1.20 1.15 1.14 0.95 0.70 0.42 0.28 0.32 0.19 0.15 0.19 0.18 0.07 0.02 0.00 0.00 0.00 0.00 0.00 0.06 0.05 0.16 0.12 0.11 0.07 0.04 0.02 0.05 0.08 0.08 0.11
5.65 5.53 4.88 3.86 2.97 2.28 2.98 4.30 4.64 4.16 4.48 3.88 2.74 1.80 2.34 1.72 1.19 0.58 0.36 0.34 0.45 0.31 0.19 0.08 0.03 0.04 0.03 0.04 0.03 0.02 0.02 0.04 0.09 0.04 0.03 0.02 0.05 0.04 0.06 0.05 0.08 0.10 0.09
8.06 7.51 5.81 4.85 3.14 1.52 1.88 2.17 2.50 3.79 2.73 2.29 3.12 2.73 2.11 1.52 1.16 0.92 0.71 0.61 0.48 0.41 0.45 0.49 0.43 0.31 0.14 0.06 0.01 0.02 0.01 0.00 0.12 0.03 0.02 0.01 0.03 0.03 0.05 0.04 0.04 0.05 0.05
6.02 6.49 6.27 4.34 2.99 1.51 0.99 1.09 1.10 2.21 2.80 2.38 1.22 2.04 2.07 1.51 1.18 1.06 1.00 1.02 1.22 1.02 0.86 0.65 0.46 0.28 0.21 0.14 0.05 0.04 0.02 0.01 0.09 0.07 0.01 0.01 0.01 0.01 0.02 0.01 0.01 0.02 0.03
3.37 3.56 5.21 4.44 3.07 2.19 1.64 1.18 0.78 1.11 2.00 2.61 1.60 1.02 1.31 1.16 0.85 0.65 0.70 0.70 0.72 0.87 0.77 0.68 0.46 0.35 0.30 0.19 0.13 0.07 0.04 0.03 0.01 0.02 0.00 0.01 0.02 0.01 0.01 0.01 0.00 0.01 0.02
1.24 1.55 2.35 3.59 4.08 3.12 1.90 1.37 0.74 0.86 1.57 2.60 2.31 0.97 0.94 1.03 0.87 0.53 0.39 0.48 0.49 0.71 0.72 0.85 0.53 0.42 0.26 0.18 0.12 0.04 0.04 0.01 0.00 0.00 0.00 0.01 0.02 0.02 0.02 0.01 0.01 0.02 0.02
0.71 0.94 1.78 2.17 2.19 2.50 2.55 1.40 0.80 0.50 1.12 1.86 2.34 1.02 0.90 0.73 0.82 0.36 0.12 0.20 0.31 0.28 0.37 0.73 0.65 0.46 0.37 0.28 0.17 0.14 0.07 0.00 0.00 0.00 0.00 0.00 0.02 0.02 0.02 0.03 0.02 0.02 0.01
0.45 0.69 1.26 1.07 0.83 0.96 1.67 1.92 1.10 0.70 0.80 1.43 2.16 0.95 0.51 0.43 0.60 0.33 0.11 0.14 0.17 0.10 0.19 0.35 0.56 0.47 0.39 0.31 0.28 0.16 0.03 0.02 0.00 0.00 0.00 0.00 0.02 0.02 0.02 0.04 0.05 0.03 0.02
0.38 0.57 0.91 0.73 0.71 0.59 0.80 1.34 1.64 0.86 0.83 1.19 1.54 1.01 0.51 0.36 0.36 0.32 0.17 0.15 0.12 0.10 0.17 0.29 0.53 0.51 0.46 0.28 0.27 0.12 0.01 0.02 0.01 0.00 0.00 0.00 0.01 0.02 0.03 0.03 0.06 0.04 0.03
0.41 0.62 1.01 1.26 0.61 0.72 0.70 0.89 1.35 1.12 0.67 0.78 1.15 1.17 0.75 0.46 0.23 0.27 0.29 0.32 0.18 0.08 0.17 0.36 0.52 0.65 0.50 0.32 0.17 0.10 0.03 0.02 0.00 0.00 0.00 0.00 0.00 0.01 0.02 0.04 0.04 0.05 0.05
0.37 0.45 0.95 1.52 0.94 0.83 0.80 0.90 1.03 1.02 0.81 0.56 0.74 0.88 0.55 0.44 0.27 0.25 0.32 0.48 0.42 0.19 0.14 0.24 0.41 0.73 0.44 0.21 0.14 0.14 0.04 0.00 0.00 0.00 0.00 0.00 0.00 0.00 0.01 0.02 0.03 0.03 0.04
0.22 0.33 0.72 1.02 1.17 1.13 0.86 0.88 0.78 0.71 0.90 0.62 0.66 0.57 0.52 0.49 0.29 0.19 0.31 0.42 0.47 0.38 0.26 0.20 0.32 0.45 0.37 0.21 0.14 0.06 0.01 0.00 0.00 0.00 0.00 0.00 0.00 0.00 0.00 0.00 0.01 0.01 0.02
0.17 0.43 0.85 0.92 1.07 1.05 0.67 0.48 0.46 0.58 0.69 0.77 0.67 0.46 0.57 0.55 0.35 0.21 0.31 0.59 0.52 0.42 0.30 0.17 0.27 0.37 0.24 0.18 0.25 0.04 0.00 0.00 0.00 0.00 0.00 0.00 0.00 0.00 0.00 0.00 0.00 0.00 0.00
0.12 0.37 0.48 0.71 0.88 0.58 0.36 0.31 0.36 0.41 0.47 0.77 0.75 0.45 0.53 0.68 0.50 0.31 0.24 0.41 0.80 0.61 0.37 0.17 0.20 0.32 0.35 0.16 0.17 0.05 0.03 0.00 0.00 0.00 0.00 0.00 0.00 0.01 0.01 0.00 0.00 0.00 0.00
0.16 0.38 0.47 0.32 0.27 0.28 0.27 0.15 0.10 0.14 0.24 0.56 0.84 0.53 0.59 0.68 0.58 0.49 0.24 0.19 0.39 0.67 0.66 0.31 0.19 0.26 0.27 0.20 0.10 0.06 0.08 0.05 0.01 0.00 0.00 0.00 0.01 0.02 0.02 0.01 0.00 0.00 0.00
0.08 0.12 0.24 0.13 0.07 0.06 0.10 0.11 0.08 0.09 0.24 0.92 1.27 0.94 0.67 0.67 0.56 0.57 0.41 0.30 0.24 0.46 0.48 0.33 0.18 0.16 0.33 0.23 0.13 0.12 0.17 0.11 0.13 0.03 0.00 0.00 0.00 0.00 0.02 0.05 0.03 0.01 0.00
0.03 0.05 0.23 0.13 0.06 0.05 0.05 0.05 0.06 0.11 0.15 0.50 1.02 0.92 0.68 0.82 0.72 0.52 0.59 0.54 0.35 0.36 0.47 0.39 0.26 0.20 0.61 0.41 0.27 0.09 0.08 0.14 0.28 0.23 0.06 0.00 0.00 0.01 0.01 0.04 0.04 0.03 0.03
0.06 0.08 0.20 0.16 0.16 0.08 0.11 0.15 0.25 0.19 0.14 0.22 0.87 1.20 0.94 0.91 0.95 0.74 0.68 0.71 0.54 0.42 0.47 0.67 0.56 0.46 0.60 0.39 0.14 0.16 0.09 0.10 0.17 0.15 0.11 0.09 0.03 0.03 0.03 0.03 0.03 0.03 0.07
0.02 0.11 0.19 0.15 0.21 0.23 0.27 0.22 0.21 0.29 0.18 0.18 0.51 1.05 1.32 1.13 1.06 1.02 0.93 0.81 0.63 0.52 0.47 0.58 0.64 0.72 0.70 0.62 0.41 0.38 0.31 0.27 0.19 0.20 0.16 0.16 0.21 0.15 0.10 0.05 0.01 0.02 0.07

GFSSE_prec_precacc_099.txt.gz
Total_Precipitation_Accumulation
0.50 0.47 0.13 0.14 0.06 0.02 0.00 0.00 0.00 0.00 0.00 0.00 0.00 0.00 0.00 0.00 0.00 0.00 0.00 0.00 0.00 0.02 0.02 0.02 0.02 0.05 0.07 0.13 0.11 0.05 0.04 0.06 0.10 0.17 0.20 0.30 0.26 0.18 0.17 0.24 0.16 0.12 0.32
1.09 0.73 0.87 0.36 0.08 0.04 0.01 0.01 0.00 0.00 0.00 0.00 0.00 0.00 0.00 0.00 0.00 0.00 0.00 0.01 0.01 0.02 0.02 0.02 0.02 0.02 0.03 0.05 0.02 0.01 0.00 0.04 0.05 0.12 0.22 0.32 0.28 0.19 0.18 0.25 0.15 0.18 0.28
1.61 1.09 1.15 1.28 0.66 0.30 0.10 0.03 0.01 0.00 0.01 0.00 0.00 0.00 0.01 0.01 0.00 0.01 0.01 0.01 0.00 0.02 0.03 0.02 0.03 0.05 0.03 0.01 0.00 0.00 0.00 0.02 0.05 0.12 0.31 0.15 0.14 0.22 0.18 0.16 0.15 0.19 0.17
1.05 0.70 1.40 1.48 1.14 0.79 0.44 0.16 0.04 0.01 0.01 0.00 0.00 0.04 0.04 0.04 0.07 0.04 0.03 0.01 0.02 0.04 0.07 0.03 0.07 0.06 0.03 0.00 0.00 0.00 0.00 0.01 0.02 0.06 0.18 0.15 0.18 0.29 0.14 0.21 0.21 0.12 0.07
1.00 0.51 0.91 1.32 1.38 1.02 0.60 0.36 0.16 0.07 0.03 0.01 0.01 0.02 0.00 0.03 0.04 0.10 0.13 0.02 0.03 0.11 0.18 0.15 0.18 0.07 0.01 0.00 0.00 0.00 0.00 0.01 0.03 0.12 0.11 0.26 0.16 0.43 0.36 0.29 0.29 0.20 0.14
1.33 0.98 0.91 1.46 1.78 2.22 1.41 0.76 0.42 0.20 0.05 0.05 0.05 0.01 0.04 0.05 0.15 0.39 0.40 0.19 0.20 0.24 0.32 0.30 0.25 0.05 0.00 0.00 0.00 0.00 0.00 0.03 0.08 0.22 0.12 0.22 0.17 0.21 0.19 0.17 0.08 0.12 0.10
2.24 2.01 1.35 2.09 2.88 4.08 4.60 3.34 2.23 1.26 0.75 0.50 0.50 0.63 0.44 0.32 0.69 0.58 0.33 0.33 0.35 0.31 0.29 0.40 0.31 0.04 0.00 0.00 0.00 0.00 0.01 0.08 0.09 0.23 0.22 0.25 0.27 0.17 0.12 0.15 0.06 0.09 0.12
3.15 2.80 2.71 2.23 2.69 3.63 5.96 6.17 5.52 5.61 3.44 1.61 1.20 1.15 1.14 0.96 0.71 0.42 0.29 0.44 0.25 0.15 0.24 0.22 0.09 0.02 0.00 0.00 0.00 0.00 0.00 0.07 0.05 0.24 0.20 0.11 0.14 0.10 0.02 0.05 0.08 0.08 0.11
5.65 5.53 4.88 3.86 2.97 2.28 2.98 4.30 4.64 4.16 4.48 3.89 2.75 1.81 2.34 1.74 1.20 0.59 0.38 0.39 0.53 0.39 0.32 0.11 0.09 0.09 0.04 0.07 0.07 0.03 0.02 0.05 0.10 0.08 0.07 0.04 0.17 0.10 0.07 0.05 0.08 0.10 0.09
8.06 7.51 5.81 4.85 3.14 1.52 1.88 2.17 2.50 3.79 2.73 2.29 3.12 2.74 2.11 1.52 1.17 0.94 0.78 0.73 0.60 0.48 0.61 0.81 0.81 0.68 0.38 0.28 0.17 0.07 0.01 0.00 0.15 0.07 0.09 0.07 0.09 0.06 0.05 0.04 0.04 0.06 0.05
6.02 6.49 6.27 4.34 2.99 1.51 0.99 1.09 1.10 2.21 2.80 2.38 1.22 2.04 2.07 1.51 1.18 1.06 1.02 1.07 1.32 1.13 0.99 0.74 0.54 0.35 0.33 0.29 0.23 0.17 0.05 0.01 0.12 0.13 0.02 0.02 0.05 0.02 0.03 0.01 0.01 0.02 0.04
3.37 3.56 5.21 4.44 3.07 2.19 1.64 1.18 0.78 1.11 2.00 2.61 1.60 1.02 1.31 1.16 0.85 0.65 0.73 0.74 0.75 0.89 0.78 0.72 0.61 0.42 0.33 0.27 0.26 0.21 0.11 0.06 0.01 0.04 0.00 0.01 0.02 0.01 0.01 0.01 0.00 0.01 0.02
1.24 1.55 2.35 3.59 4.08 3.12 1.90 1.37 0.74 0.86 1.57 2.60 2.31 0.97 0.94 1.03 0.87 0.53 0.39 0.49 0.49 0.72 0.74 0.91 0.61 0.45 0.27 0.20 0.16 0.16 0.13 0.06 0.01 0.01 0.00 0.01 0.02 0.02 0.02 0.01 0.01 0.02 0.02
0.71 0.94 1.78 2.17 2.19 2.50 2.55 1.40 0.80 0.50 1.12 1.86 2.34 1.02 0.90 0.73 0.82 0.36 0.12 0.21 0.31 0.30 0.42 0.84 0.76 0.53 0.42 0.35 0.24 0.22 0.12 0.07 0.01 0.00 0.00 0.00 0.02 0.02 0.02 0.03 0.02 0.02 0.01
0.45 0.69 1.26 1.07 0.83 0.96 1.67 1.92 1.10 0.70 0.80 1.43 2.16 0.95 0.51 0.43 0.60 0.33 0.11 0.14 0.17 0.11 0.21 0.39 0.60 0.51 0.41 0.35 0.37 0.34 0.10 0.06 0.02 0.00 0.00 0.00 0.02 0.02 0.02 0.04 0.05 0.03 0.02
0.38 0.57 0.92 0.73 0.71 0.59 0.80 1.34 1.64 0.86 0.83 1.19 1.54 1.01 0.51 0.36 0.36 0.32 0.17 0.15 0.12 0.12 0.19 0.33 0.57 0.55 0.49 0.34 0.34 0.21 0.09 0.09 0.03 0.00 0.00 0.00 0.01 0.02 0.03 0.03 0.06 0.04 0.03
0.41 0.62 1.01 1.26 0.61 0.72 0.70 0.89 1.35 1.12 0.67 0.78 1.15 1.17 0.75 0.46 0.23 0.27 0.29 0.32 0.19 0.11 0.21 0.40 0.56 0.68 0.55 0.44 0.30 0.18 0.15 0.13 0.03 0.00 0.00 0.00 0.00 0.01 0.02 0.05 0.04 0.06 0.05
0.37 0.45 0.95 1.52 0.94 0.83 0.80 0.90 1.03 1.02 0.81 0.56 0.74 0.88 0.55 0.44 0.27 0.25 0.32 0.48 0.43 0.23 0.19 0.27 0.43 0.74 0.50 0.34 0.23 0.18 0.16 0.13 0.02 0.00 0.00 0.00 0.00 0.00 0.01 0.02 0.04 0.03 0.04
0.22 0.33 0.72 1.02 1.17 1.13 0.86 0.88 0.78 0.72 0.90 0.62 0.66 0.57 0.52 0.49 0.29 0.19 0.31 0.42 0.47 0.41 0.30 0.24 0.34 0.47 0.48 0.36 0.22 0.10 0.09 0.06 0.01 0.00 0.00 0.00 0.00 0.00 0.00 0.01 0.01 0.01 0.03
0.17 0.43 0.85 0.92 1.07 1.06 0.67 0.48 0.46 0.58 0.69 0.77 0.67 0.46 0.57 0.55 0.35 0.21 0.31 0.59 0.53 0.45 0.32 0.21 0.36 0.45 0.34 0.36 0.36 0.09 0.06 0.05 0.00 0.00 0.00 0.00 0.00 0.00 0.00 0.00 0.01 0.00 0.00
0.12 0.37 0.48 0.71 0.88 0.58 0.36 0.31 0.36 0.41 0.48 0.77 0.76 0.45 0.53 0.68 0.50 0.31 0.24 0.41 0.80 0.62 0.39 0.21 0.30 0.47 0.52 0.29 0.38 0.23 0.12 0.03 0.00 0.00 0.00 0.00 0.00 0.01 0.01 0.00 0.00 0.00 0.00
0.16 0.38 0.47 0.32 0.27 0.28 0.27 0.15 0.10 0.14 0.25 0.57 0.85 0.54 0.59 0.68 0.59 0.49 0.25 0.19 0.39 0.68 0.71 0.37 0.27 0.43 0.47 0.34 0.19 0.19 0.18 0.09 0.01 0.00 0.00 0.00 0.01 0.02 0.02 0.01 0.00 0.00 0.00
0.08 0.12 0.24 0.13 0.07 0.07 0.10 0.11 0.08 0.09 0.25 0.94 1.28 0.96 0.68 0.67 0.57 0.57 0.42 0.30 0.25 0.46 0.63 0.55 0.28 0.23 0.49 0.39 0.19 0.16 0.19 0.12 0.13 0.03 0.00 0.00 0.00 0.00 0.02 0.05 0.03 0.01 0.00
0.03 0.05 0.23 0.13 0.06 0.05 0.05 0.05 0.06 0.11 0.15 0.50 1.02 0.93 0.70 0.82 0.72 0.53 0.60 0.56 0.36 0.37 0.49 0.46 0.34 0.29 0.71 0.55 0.39 0.11 0.08 0.14 0.28 0.23 0.06 0.00 0.00 0.01 0.01 0.04 0.04 0.03 0.03
0.06 0.08 0.20 0.16 0.16 0.08 0.11 0.15 0.25 0.19 0.14 0.22 0.87 1.20 0.95 0.92 0.96 0.75 0.69 0.72 0.56 0.44 0.49 0.68 0.58 0.51 0.70 0.46 0.21 0.17 0.09 0.10 0.17 0.15 0.11 0.09 0.03 0.03 0.03 0.03 0.03 0.03 0.07
0.02 0.11 0.19 0.15 0.21 0.23 0.27 0.22 0.21 0.29 0.18 0.18 0.51 1.05 1.32 1.13 1.06 1.02 0.94 0.82 0.64 0.53 0.48 0.60 0.68 0.79 0.76 0.68 0.46 0.40 0.31 0.27 0.19 0.20 0.16 0.16 0.21 0.15 0.10 0.05 0.01 0.02 0.07

GFSSE_prec_precacc_105.txt.gz
Total_Precipitation_Accumulation
0.50 0.47 0.13 0.14 0.06 0.02 0.00 0.00 0.00 0.00 0.00 0.00 0.00 0.00 0.00 0.00 0.00 0.00 0.00 0.00 0.01 0.02 0.02 0.02 0.02 0.06 0.08 0.15 0.12 0.05 0.05 0.08 0.22 0.26 0.23 0.37 0.30 0.20 0.17 0.25 0.16 0.12 0.39
1.09 0.73 0.87 0.36 0.08 0.04 0.01 0.01 0.00 0.00 0.00 0.00 0.00 0.00 0.00 0.00 0.00 0.00 0.00 0.01 0.01 0.02 0.02 0.02 0.04 0.06 0.06 0.08 0.02 0.01 0.00 0.05 0.08 0.14 0.22 0.35 0.30 0.20 0.19 0.26 0.17 0.21 0.32
1.61 1.09 1.15 1.28 0.66 0.30 0.10 0.03 0.01 0.00 0.01 0.00 0.00 0.00 0.01 0.01 0.00 0.01 0.01 0.01 0.00 0.02 0.03 0.04 0.10 0.11 0.04 0.02 0.00 0.00 0.00 0.02 0.05 0.12 0.31 0.16 0.15 0.24 0.19 0.17 0.19 0.23 0.21
1.05 0.70 1.40 1.48 1.14 0.79 0.44 0.16 0.04 0.01 0.01 0.00 0.00 0.04 0.04 0.04 0.07 0.04 0.03 0.01 0.02 0.04 0.07 0.03 0.07 0.06 0.03 0.01 0.00 0.00 0.00 0.01 0.02 0.06 0.18 0.16 0.19 0.33 0.19 0.22 0.24 0.15 0.09
1.00 0.51 0.91 1.32 1.38 1.02 0.60 0.36 0.16 0.07 0.03 0.01 0.01 0.02 0.00 0.03 0.04 0.10 0.13 0.02 0.03 0.11 0.19 0.15 0.18 0.07 0.01 0.00 0.00 0.00 0.00 0.01 0.03 0.12 0.13 0.27 0.17 0.53 0.46 0.35 0.34 0.24 0.16
1.33 0.98 0.91 1.46 1.78 2.22 1.41 0.76 0.42 0.20 0.05 0.05 0.05 0.01 0.04 0.05 0.15 0.39 0.40 0.19 0.20 0.24 0.33 0.31 0.26 0.05 0.00 0.00 0.00 0.00 0.00 0.03 0.08 0.22 0.12 0.23 0.18 0.33 0.34 0.18 0.11 0.15 0.11
2.24 2.01 1.35 2.09 2.88 4.08 4.60 3.34 2.23 1.26 0.75 0.50 0.50 0.63 0.44 0.32 0.69 0.59 0.36 0.40 0.36 0.32 0.32 0.48 0.33 0.04 0.00 0.00 0.00 0.00 0.01 0.08 0.09 0.23 0.24 0.25 0.28 0.31 0.22 0.15 0.06 0.10 0.13
3.15 2.80 2.71 2.23 2.69 3.63 5.96 6.17 5.52 5.61 3.44 1.61 1.20 1.15 1.14 0.96 0.71 0.42 0.35 0.50 0.26 0.18 0.32 0.27 0.09 0.02 0.00 0.00 0.00 0.00 0.00 0.07 0.05 0.24 0.24 0.12 0.19 0.30 0.07 0.05 0.08 0.08 0.11
5.65 5.53 4.88 3.86 2.97 2.28 2.98 4.30 4.64 4.16 4.48 3.89 2.75 1.81 2.34 1.74 1.20 0.59 0.40 0.48 0.61 0.48 0.41 0.13 0.15 0.17 0.06 0.12 0.11 0.03 0.02 0.05 0.10 0.08 0.11 0.06 0.38 0.35 0.11 0.05 0.08 0.10 0.09
8.06 7.51 5.81 4.85 3.14 1.52 1.88 2.17 2.50 3.79 2.73 2.29 3.12 2.74 2.11 1.52 1.17 0.94 0.81 0.81 0.81 0.69 0.92 1.16 0.96 0.84 0.53 0.36 0.29 0.16 0.01 0.00 0.15 0.09 0.21 0.13 0.24 0.23 0.07 0.04 0.04 0.06 0.05
6.02 6.49 6.27 4.34 2.99 1.51 0.99 1.09 1.10 2.21 2.80 2.38 1.22 2.04 2.08 1.51 1.18 1.06 1.02 1.09 1.39 1.29 1.20 0.77 0.54 0.36 0.34 0.32 0.31 0.34 0.17 0.06 0.16 0.17 0.16 0.16 0.20 0.21 0.04 0.01 0.01 0.02 0.04
3.37 3.56 5.21 4.44 3.07 2.19 1.64 1.18 0.78 1.11 2.00 2.61 1.60 1.02 1.31 1.16 0.85 0.65 0.73 0.74 0.77 0.95 0.84 0.73 0.62 0.42 0.33 0.28 0.28 0.30 0.27 0.22 0.14 0.18 0.06 0.16 0.22 0.09 0.03 0.01 0.00 0.01 0.02
1.24 1.55 2.35 3.59 4.08 3.12 1.90 1.37 0.74 0.86 1.57 2.60 2.31 0.97 0.94 1.03 0.87 0.53 0.39 0.49 0.49 0.72 0.74 0.96 0.76 0.49 0.28 0.20 0.17 0.20 0.27 0.25 0.16 0.16 0.19 0.15 0.19 0.04 0.03 0.01 0.01 0.02 0.02
0.71 0.94 1.78 2.17 2.19 2.50 2.55 1.40 0.80 0.50 1.12 1.86 2.34 1.02 0.90 0.73 0.82 0.36 0.12 0.21 0.31 0.30 0.42 0.95 1.01 0.60 0.44 0.35 0.25 0.25 0.19 0.27 0.26 0.16 0.15 0.14 0.21 0.06 0.03 0.03 0.02 0.02 0.01
0.46 0.69 1.26 1.07 0.83 0.96 1.67 1.92 1.10 0.70 0.80 1.43 2.16 0.95 0.51 0.43 0.60 0.33 0.11 0.14 0.17 0.11 0.21 0.41 0.68 0.57 0.43 0.35 0.37 0.37 0.15 0.15 0.23 0.18 0.15 0.13 0.11 0.08 0.02 0.04 0.05 0.03 0.02
0.38 0.57 0.92 0.73 0.71 0.59 0.80 1.34 1.64 0.86 0.83 1.19 1.54 1.01 0.51 0.36 0.36 0.32 0.17 0.15 0.12 0.12 0.19 0.33 0.60 0.60 0.54 0.35 0.36 0.23 0.11 0.15 0.14 0.15 0.12 0.08 0.06 0.04 0.03 0.04 0.07 0.05 0.04
0.41 0.62 1.01 1.26 0.61 0.72 0.70 0.89 1.35 1.12 0.67 0.78 1.15 1.17 0.75 0.46 0.23 0.27 0.29 0.32 0.19 0.11 0.21 0.41 0.57 0.69 0.58 0.45 0.33 0.21 0.17 0.19 0.13 0.09 0.09 0.06 0.03 0.01 0.02 0.05 0.05 0.07 0.06
0.37 0.45 0.95 1.52 0.94 0.84 0.81 0.90 1.03 1.02 0.82 0.56 0.74 0.88 0.55 0.44 0.27 0.25 0.32 0.48 0.43 0.23 0.19 0.28 0.44 0.76 0.52 0.36 0.26 0.22 0.19 0.20 0.14 0.12 0.08 0.04 0.01 0.00 0.01 0.02 0.04 0.05 0.05
0.22 0.33 0.72 1.02 1.17 1.13 0.88 0.89 0.79 0.75 0.91 0.62 0.66 0.57 0.52 0.49 0.29 0.19 0.31 0.42 0.47 0.41 0.30 0.24 0.36 0.49 0.50 0.38 0.25 0.18 0.16 0.12 0.11 0.14 0.10 0.04 0.01 0.00 0.00 0.01 0.02 0.02 0.04
0.17 0.43 0.85 0.92 1.07 1.07 0.75 0.57 0.57 0.68 0.74 0.78 0.67 0.46 0.57 0.55 0.35 0.21 0.31 0.59 0.53 0.45 0.32 0.23 0.39 0.47 0.37 0.41 0.50 0.22 0.23 0.16 0.11 0.10 0.11 0.08 0.02 0.00 0.00 0.00 0.01 0.01 0.01
0.12 0.37 0.48 0.71 0.88 0.60 0.38 0.32 0.37 0.42 0.49 0.78 0.76 0.48 0.53 0.68 0.50 0.31 0.24 0.41 0.80 0.62 0.39 0.22 0.32 0.49 0.57 0.40 0.70 0.74 0.46 0.31 0.16 0.13 0.10 0.09 0.04 0.02 0.01 0.00 0.00 0.00 0.00
0.16 0.38 0.47 0.32 0.27 0.28 0.28 0.16 0.12 0.17 0.29 0.62 0.91 0.59 0.62 0.69 0.59 0.50 0.25 0.20 0.40 0.69 0.72 0.38 0.29 0.46 0.50 0.45 0.47 0.55 0.75 0.67 0.39 0.24 0.21 0.10 0.05 0.03 0.02 0.01 0.00 0.00 0.00
0.08 0.12 0.24 0.13 0.07 0.07 0.10 0.13 0.10 0.14 0.30 0.99 1.31 0.98 0.70 0.69 0.59 0.60 0.45 0.33 0.27 0.48 0.65 0.57 0.30 0.26 0.54 0.47 0.34 0.38 0.44 0.42 0.28 0.20 0.19 0.13 0.05 0.01 0.02 0.05 0.03 0.01 0.00
0.03 0.05 0.23 0.13 0.06 0.05 0.05 0.05 0.07 0.11 0.15 0.50 1.03 0.94 0.72 0.89 0.75 0.56 0.66 0.64 0.41 0.39 0.50 0.48 0.35 0.31 0.74 0.61 0.53 0.25 0.17 0.20 0.35 0.32 0.15 0.14 0.06 0.01 0.01 0.04 0.04 0.03 0.03
0.06 0.08 0.20 0.16 0.16 0.08 0.11 0.15 0.26 0.20 0.14 0.23 0.89 1.22 0.96 0.95 1.00 0.83 0.74 0.78 0.62 0.47 0.52 0.71 0.59 0.53 0.72 0.49 0.26 0.26 0.20 0.18 0.23 0.20 0.20 0.18 0.09 0.03 0.03 0.03 0.03 0.03 0.07
0.02 0.11 0.19 0.15 0.21 0.23 0.27 0.22 0.22 0.29 0.18 0.18 0.51 1.06 1.33 1.14 1.08 1.06 1.01 0.88 0.70 0.56 0.51 0.62 0.70 0.80 0.78 0.71 0.50 0.45 0.35 0.28 0.20 0.21 0.18 0.19 0.25 0.18 0.10 0.05 0.01 0.02 0.07

GFSSE_prec_precacc_111.txt.gz
Total_Precipitation_Accumulation
0.50 0.47 0.13 0.14 0.06 0.02 0.00 0.00 0.00 0.00 0.00 0.00 0.00 0.00 0.00 0.00 0.00 0.00 0.00 0.00 0.01 0.03 0.02 0.02 0.02 0.07 0.11 0.17 0.12 0.05 0.07 0.12 0.26 0.29 0.25 0.38 0.30 0.21 0.18 0.27 0.19 0.12 0.44
1.09 0.73 0.87 0.36 0.08 0.04 0.01 0.01 0.00 0.00 0.00 0.00 0.00 0.00 0.00 0.00 0.00 0.00 0.00 0.01 0.01 0.02 0.02 0.02 0.05 0.09 0.09 0.09 0.02 0.01 0.02 0.09 0.11 0.14 0.25 0.40 0.33 0.21 0.19 0.27 0.19 0.21 0.34
1.61 1.09 1.15 1.28 0.66 0.30 0.10 0.03 0.01 0.00 0.01 0.00 0.00 0.00 0.01 0.01 0.00 0.01 0.01 0.01 0.00 0.02 0.03 0.04 0.11 0.12 0.06 0.02 0.00 0.00 0.00 0.03 0.05 0.13 0.35 0.18 0.17 0.26 0.19 0.20 0.20 0.26 0.24
1.05 0.70 1.40 1.48 1.14 0.79 0.44 0.16 0.04 0.01 0.01 0.00 0.00 0.04 0.04 0.04 0.07 0.04 0.03 0.01 0.02 0.04 0.07 0.04 0.10 0.08 0.03 0.01 0.00 0.00 0.00 0.01 0.02 0.06 0.18 0.16 0.20 0.35 0.20 0.30 0.27 0.17 0.12
1.00 0.51 0.91 1.32 1.38 1.02 0.60 0.36 0.16 0.07 0.03 0.01 0.01 0.02 0.00 0.03 0.04 0.10 0.13 0.02 0.03 0.11 0.19 0.15 0.20 0.07 0.01 0.00 0.00 0.00 0.00 0.01 0.03 0.12 0.13 0.27 0.20 0.62 0.52 0.39 0.39 0.30 0.18
1.33 0.98 0.91 1.46 1.78 2.22 1.41 0.76 0.42 0.20 0.05 0.05 0.05 0.01 0.04 0.05 0.15 0.39 0.40 0.19 0.20 0.24 0.33 0.32 0.26 0.05 0.00 0.00 0.00 0.00 0.00 0.03 0.08 0.22 0.12 0.24 0.21 0.42 0.47 0.25 0.20 0.29 0.16
2.24 2.01 1.35 2.09 2.88 4.08 4.60 3.34 2.23 1.26 0.75 0.50 0.50 0.63 0.44 0.32 0.69 0.59 0.40 0.43 0.36 0.32 0.33 0.48 0.33 0.04 0.00 0.00 0.00 0.00 0.01 0.08 0.09 0.23 0.25 0.28 0.32 0.37 0.26 0.17 0.19 0.21 0.15
3.15 2.80 2.71 2.24 2.69 3.63 5.96 6.17 5.52 5.61 3.44 1.61 1.20 1.15 1.14 0.96 0.71 0.43 0.37 0.53 0.28 0.20 0.33 0.27 0.09 0.02 0.00 0.00 0.00 0.00 0.00 0.07 0.05 0.24 0.27 0.19 0.23 0.41 0.10 0.06 0.13 0.09 0.11
5.65 5.53 4.88 3.86 2.97 2.28 2.98 4.30 4.64 4.16 4.48 3.89 2.75 1.81 2.34 1.74 1.20 0.59 0.42 0.51 0.70 0.61 0.45 0.13 0.15 0.17 0.06 0.12 0.11 0.03 0.02 0.05 0.10 0.08 0.15 0.20 0.58 0.52 0.15 0.05 0.08 0.10 0.09
8.06 7.51 5.81 4.85 3.14 1.52 1.88 2.17 2.50 3.79 2.73 2.29 3.12 2.74 2.11 1.52 1.17 0.94 0.82 0.82 0.82 0.74 0.95 1.16 0.96 0.84 0.53 0.36 0.29 0.16 0.01 0.00 0.15 0.09 0.26 0.21 0.49 0.49 0.12 0.05 0.04 0.06 0.05
6.02 6.49 6.27 4.34 2.99 1.51 0.99 1.09 1.10 2.21 2.80 2.38 1.22 2.04 2.08 1.51 1.18 1.06 1.02 1.09 1.39 1.29 1.20 0.77 0.54 0.36 0.34 0.32 0.31 0.34 0.17 0.06 0.16 0.17 0.17 0.29 0.50 0.50 0.10 0.03 0.01 0.02 0.04
3.37 3.56 5.21 4.44 3.07 2.19 1.64 1.18 0.78 1.11 2.00 2.61 1.60 1.02 1.31 1.16 0.85 0.65 0.73 0.74 0.77 0.95 0.84 0.73 0.62 0.42 0.33 0.28 0.28 0.30 0.27 0.22 0.15 0.18 0.07 0.22 0.54 0.48 0.10 0.01 0.00 0.01 0.02
1.24 1.55 2.35 3.59 4.08 3.12 1.90 1.37 0.74 0.86 1.57 2.60 2.31 0.97 0.94 1.03 0.87 0.53 0.39 0.49 0.49 0.73 0.74 0.96 0.76 0.49 0.28 0.20 0.17 0.20 0.27 0.29 0.22 0.18 0.20 0.22 0.40 0.32 0.10 0.02 0.01 0.02 0.02
0.71 0.94 1.78 2.17 2.19 2.50 2.55 1.40 0.80 0.50 1.12 1.86 2.34 1.02 0.90 0.73 0.82 0.36 0.12 0.21 0.31 0.30 0.42 0.95 1.01 0.61 0.44 0.35 0.25 0.25 0.23 0.32 0.29 0.18 0.20 0.24 0.38 0.40 0.13 0.04 0.03 0.02 0.01
0.46 0.69 1.26 1.07 0.83 0.96 1.67 1.92 1.10 0.70 0.80 1.44 2.16 0.95 0.51 0.43 0.60 0.33 0.11 0.14 0.17 0.11 0.21 0.41 0.68 0.57 0.43 0.36 0.37 0.37 0.15 0.15 0.24 0.20 0.23 0.50 0.50 0.52 0.26 0.06 0.06 0.04 0.02
0.38 0.57 0.92 0.73 0.72 0.59 0.80 1.34 1.64 0.86 0.83 1.19 1.54 1.01 0.51 0.36 0.36 0.32 0.17 0.15 0.12 0.12 0.19 0.33 0.60 0.60 0.55 0.35 0.36 0.23 0.13 0.15 0.14 0.17 0.17 0.28 0.50 0.54 0.43 0.17 0.09 0.06 0.04
0.41 0.62 1.01 1.26 0.62 0.74 0.77 0.91 1.36 1.12 0.67 0.78 1.15 1.17 0.75 0.46 0.23 0.27 0.29 0.32 0.19 0.11 0.21 0.41 0.57 0.74 0.61 0.47 0.33 0.21 0.18 0.19 0.13 0.10 0.17 0.18 0.21 0.38 0.44 0.45 0.16 0.09 0.07
0.37 0.45 0.95 1.52 0.94 0.85 0.84 0.93 1.05 1.03 0.82 0.57 0.75 0.88 0.55 0.45 0.27 0.25 0.32 0.48 0.43 0.23 0.19 0.28 0.44 0.78 0.57 0.38 0.27 0.23 0.20 0.21 0.15 0.13 0.11 0.17 0.23 0.19 0.25 0.38 0.22 0.07 0.06
0.22 0.33 0.72 1.02 1.17 1.13 0.91 0.93 0.85 0.78 0.93 0.63 0.66 0.57 0.52 0.50 0.30 0.20 0.31 0.42 0.47 0.41 0.30 0.24 0.36 0.50 0.51 0.40 0.25 0.18 0.17 0.13 0.13 0.16 0.15 0.16 0.26 0.33 0.20 0.21 0.13 0.05 0.04
0.17 0.43 0.85 0.92 1.07 1.07 0.77 0.64 0.61 0.71 0.75 0.78 0.68 0.47 0.57 0.55 0.35 0.21 0.31 0.60 0.53 0.46 0.32 0.23 0.39 0.48 0.38 0.43 0.50 0.23 0.24 0.18 0.13 0.12 0.14 0.21 0.25 0.43 0.39 0.17 0.08 0.02 0.01
0.12 0.37 0.48 0.71 0.88 0.60 0.38 0.33 0.37 0.42 0.50 0.78 0.77 0.49 0.53 0.68 0.50 0.32 0.25 0.42 0.80 0.63 0.39 0.22 0.32 0.50 0.60 0.42 0.72 0.76 0.48 0.35 0.19 0.16 0.14 0.17 0.20 0.23 0.46 0.41 0.12 0.01 0.00
0.16 0.38 0.47 0.32 0.27 0.28 0.28 0.16 0.12 0.17 0.29 0.63 0.92 0.60 0.63 0.69 0.59 0.51 0.26 0.21 0.40 0.69 0.72 0.39 0.29 0.47 0.52 0.48 0.50 0.59 0.81 0.84 0.54 0.32 0.28 0.16 0.15 0.16 0.14 0.33 0.29 0.07 0.00
0.08 0.12 0.24 0.13 0.07 0.07 0.10 0.13 0.11 0.16 0.32 1.03 1.32 0.98 0.70 0.69 0.61 0.60 0.47 0.37 0.31 0.51 0.66 0.59 0.32 0.27 0.56 0.50 0.36 0.41 0.48 0.46 0.32 0.29 0.31 0.24 0.16 0.11 0.09 0.12 0.12 0.05 0.01
0.03 0.05 0.23 0.13 0.06 0.05 0.05 0.05 0.07 0.11 0.16 0.50 1.03 0.94 0.73 0.92 0.77 0.56 0.66 0.66 0.44 0.40 0.51 0.52 0.40 0.33 0.76 0.62 0.58 0.28 0.18 0.21 0.37 0.37 0.27 0.32 0.33 0.22 0.11 0.13 0.10 0.07 0.04
0.06 0.08 0.20 0.16 0.16 0.08 0.11 0.15 0.26 0.20 0.14 0.23 0.89 1.22 0.97 0.96 1.03 0.87 0.75 0.80 0.64 0.48 0.54 0.74 0.62 0.57 0.74 0.51 0.27 0.28 0.22 0.21 0.31 0.32 0.33 0.32 0.35 0.28 0.22 0.13 0.14 0.12 0.07
0.02 0.11 0.19 0.15 0.21 0.23 0.27 0.22 0.22 0.29 0.18 0.18 0.51 1.06 1.34 1.17 1.18 1.13 1.06 0.95 0.75 0.59 0.53 0.66 0.74 0.83 0.80 0.74 0.53 0.46 0.36 0.30 0.23 0.26 0.26 0.29 0.39 0.35 0.27 0.22 0.11 0.09 0.08

GFSSE_prec_precacc_114.txt.gz
Total_Precipitation_Accumulation
0.50 0.47 0.13 0.14 0.06 0.02 0.00 0.00 0.00 0.00 0.00 0.00 0.00 0.00 0.00 0.00 0.00 0.00 0.00 0.00 0.01 0.03 0.02 0.02 0.02 0.07 0.11 0.17 0.12 0.05 0.07 0.12 0.26 0.30 0.28 0.43 0.31 0.21 0.18 0.28 0.22 0.15 0.45
1.09 0.73 0.87 0.36 0.08 0.04 0.01 0.01 0.00 0.00 0.00 0.00 0.00 0.00 0.00 0.00 0.00 0.00 0.00 0.01 0.01 0.02 0.02 0.02 0.05 0.09 0.09 0.09 0.02 0.01 0.02 0.10 0.11 0.14 0.27 0.44 0.34 0.21 0.19 0.29 0.22 0.23 0.36
1.61 1.09 1.15 1.28 0.66 0.30 0.10 0.03 0.01 0.00 0.01 0.00 0.00 0.00 0.01 0.01 0.00 0.01 0.01 0.01 0.00 0.02 0.03 0.04 0.11 0.12 0.06 0.02 0.00 0.00 0.00 0.03 0.05 0.13 0.38 0.25 0.21 0.27 0.20 0.23 0.21 0.28 0.25
1.05 0.70 1.40 1.48 1.14 0.79 0.44 0.16 0.04 0.01 0.01 0.00 0.00 0.04 0.04 0.04 0.07 0.04 0.03 0.01 0.02 0.04 0.07 0.04 0.10 0.11 0.03 0.01 0.00 0.00 0.00 0.01 0.02 0.07 0.23 0.20 0.21 0.37 0.23 0.40 0.30 0.18 0.13
1.00 0.51 0.91 1.32 1.38 1.02 0.60 0.36 0.16 0.07 0.03 0.01 0.01 0.02 0.00 0.03 0.04 0.10 0.13 0.02 0.03 0.11 0.19 0.15 0.20 0.07 0.01 0.00 0.00 0.00 0.00 0.01 0.03 0.13 0.14 0.29 0.21 0.64 0.53 0.44 0.41 0.35 0.24
1.33 0.98 0.91 1.46 1.78 2.22 1.41 0.76 0.42 0.20 0.05 0.05 0.05 0.01 0.04 0.05 0.15 0.39 0.40 0.19 0.20 0.24 0.33 0.32 0.26 0.05 0.00 0.00 0.00 0.00 0.00 0.03 0.08 0.22 0.12 0.25 0.24 0.45 0.52 0.33 0.24 0.31 0.16
2.24 2.01 1.35 2.09 2.88 4.08 4.60 3.34 2.23 1.26 0.75 0.50 0.50 0.63 0.44 0.32 0.69 0.59 0.40 0.43 0.36 0.32 0.33 0.48 0.33 0.04 0.00 0.00 0.00 0.00 0.01 0.08 0.09 0.23 0.26 0.28 0.36 0.42 0.34 0.21 0.23 0.23 0.16
3.15 2.80 2.71 2.24 2.69 3.63 5.96 6.17 5.52 5.61 3.44 1.61 1.20 1.15 1.14 0.96 0.71 0.43 0.37 0.53 0.28 0.20 0.33 0.27 0.09 0.02 0.00 0.00 0.00 0.00 0.00 0.07 0.05 0.25 0.27 0.19 0.25 0.48 0.14 0.08 0.18 0.14 0.12
5.65 5.53 4.88 3.86 2.97 2.28 2.98 4.30 4.64 4.16 4.48 3.89 2.75 1.81 2.34 1.74 1.20 0.59 0.42 0.51 0.70 0.61 0.45 0.13 0.15 0.17 0.06 0.12 0.11 0.03 0.02 0.05 0.10 0.09 0.16 0.20 0.60 0.58 0.16 0.10 0.16 0.12 0.09
8.06 7.51 5.81 4.85 3.14 1.52 1.88 2.17 2.50 3.79 2.73 2.29 3.12 2.74 2.11 1.52 1.17 0.94 0.82 0.82 0.82 0.74 0.95 1.16 0.96 0.84 0.53 0.36 0.29 0.16 0.01 0.00 0.15 0.10 0.27 0.23 0.53 0.66 0.16 0.14 0.07 0.06 0.05
6.02 6.49 6.27 4.34 2.99 1.51 0.99 1.09 1.10 2.21 2.80 2.38 1.22 2.04 2.08 1.51 1.18 1.06 1.02 1.09 1.40 1.30 1.20 0.77 0.54 0.36 0.34 0.32 0.31 0.34 0.17 0.06 0.16 0.19 0.20 0.31 0.54 0.67 0.32 0.10 0.02 0.02 0.04
3.37 3.56 5.21 4.44 3.07 2.19 1.64 1.18 0.78 1.11 2.00 2.61 1.60 1.02 1.31 1.16 0.85 0.65 0.73 0.75 0.79 0.97 0.85 0.73 0.62 0.42 0.33 0.28 0.28 0.30 0.27 0.22 0.15 0.19 0.11 0.23 0.56 0.63 0.30 0.02 0.01 0.01 0.02
1.24 1.55 2.35 3.59 4.08 3.12 1.90 1.37 0.74 0.86 1.57 2.60 2.31 0.97 0.94 1.03 0.88 0.54 0.41 0.50 0.51 0.75 0.75 0.96 0.76 0.49 0.28 0.20 0.17 0.20 0.28 0.29 0.22 0.19 0.22 0.24 0.41 0.38 0.21 0.05 0.01 0.02 0.02
0.71 0.94 1.78 2.17 2.19 2.50 2.55 1.40 0.80 0.50 1.12 1.86 2.35 1.02 0.90 0.73 0.82 0.36 0.12 0.21 0.32 0.31 0.43 0.96 1.01 0.61 0.44 0.35 0.25 0.25 0.23 0.32 0.29 0.21 0.25 0.26 0.40 0.48 0.24 0.06 0.03 0.02 0.01
0.46 0.69 1.26 1.07 0.83 0.96 1.67 1.92 1.10 0.70 0.80 1.44 2.16 0.95 0.51 0.43 0.60 0.33 0.12 0.14 0.18 0.12 0.23 0.42 0.68 0.57 0.43 0.36 0.37 0.38 0.16 0.15 0.24 0.21 0.26 0.57 0.61 0.65 0.43 0.18 0.08 0.04 0.02
0.38 0.57 0.92 0.73 0.72 0.59 0.80 1.34 1.64 0.86 0.83 1.19 1.55 1.01 0.51 0.36 0.36 0.32 0.17 0.15 0.13 0.12 0.20 0.34 0.60 0.60 0.55 0.35 0.36 0.24 0.15 0.17 0.17 0.18 0.19 0.34 0.53 0.67 0.53 0.35 0.19 0.08 0.05
0.41 0.62 1.01 1.26 0.62 0.74 0.77 0.91 1.36 1.12 0.67 0.78 1.15 1.18 0.75 0.46 0.23 0.27 0.29 0.32 0.19 0.12 0.21 0.41 0.58 0.75 0.61 0.47 0.35 0.23 0.21 0.22 0.17 0.13 0.19 0.18 0.22 0.39 0.53 0.77 0.77 0.38 0.09
0.37 0.45 0.95 1.52 0.94 0.85 0.84 0.93 1.05 1.03 0.82 0.57 0.75 0.88 0.55 0.45 0.27 0.26 0.32 0.48 0.43 0.23 0.19 0.29 0.45 0.78 0.57 0.39 0.29 0.26 0.23 0.26 0.19 0.16 0.13 0.17 0.23 0.19 0.26 0.52 1.45 1.45 0.20
0.22 0.33 0.72 1.02 1.17 1.13 0.91 0.93 0.85 0.78 0.93 0.63 0.66 0.57 0.52 0.50 0.30 0.20 0.32 0.43 0.47 0.41 0.30 0.24 0.36 0.51 0.52 0.41 0.26 0.19 0.20 0.17 0.16 0.19 0.19 0.18 0.26 0.33 0.22 0.26 0.58 0.87 0.36
0.17 0.43 0.85 0.92 1.07 1.07 0.77 0.64 0.61 0.71 0.75 0.78 0.68 0.47 0.57 0.55 0.35 0.22 0.31 0.60 0.53 0.46 0.33 0.23 0.39 0.48 0.38 0.44 0.51 0.24 0.26 0.21 0.16 0.13 0.17 0.25 0.27 0.44 0.45 0.31 0.34 0.42 0.29
0.12 0.37 0.48 0.71 0.88 0.60 0.38 0.33 0.37 0.42 0.50 0.78 0.77 0.49 0.53 0.68 0.50 0.32 0.25 0.42 0.80 0.63 0.40 0.23 0.33 0.50 0.60 0.43 0.73 0.76 0.49 0.35 0.20 0.17 0.14 0.17 0.20 0.25 0.58 0.60 0.32 0.32 0.36
0.16 0.38 0.47 0.32 0.27 0.28 0.28 0.16 0.12 0.17 0.29 0.63 0.92 0.60 0.63 0.69 0.59 0.51 0.26 0.21 0.40 0.70 0.72 0.39 0.29 0.47 0.52 0.49 0.51 0.59 0.82 0.85 0.55 0.33 0.29 0.17 0.16 0.22 0.21 0.39 0.43 0.31 0.30
0.08 0.12 0.24 0.13 0.07 0.07 0.10 0.13 0.11 0.16 0.32 1.03 1.33 0.98 0.70 0.69 0.61 0.60 0.47 0.37 0.31 0.51 0.66 0.59 0.32 0.27 0.57 0.51 0.38 0.41 0.48 0.46 0.33 0.30 0.31 0.24 0.18 0.14 0.16 0.17 0.22 0.22 0.18
0.03 0.05 0.23 0.13 0.06 0.05 0.05 0.05 0.07 0.11 0.16 0.50 1.03 0.94 0.73 0.92 0.77 0.56 0.67 0.67 0.45 0.41 0.52 0.52 0.40 0.33 0.76 0.63 0.59 0.29 0.18 0.21 0.38 0.38 0.28 0.33 0.34 0.23 0.13 0.17 0.13 0.15 0.14
0.06 0.08 0.20 0.16 0.16 0.08 0.11 0.15 0.26 0.20 0.14 0.23 0.89 1.22 0.97 0.96 1.03 0.87 0.75 0.80 0.65 0.48 0.55 0.74 0.63 0.57 0.74 0.51 0.27 0.29 0.22 0.22 0.32 0.34 0.34 0.32 0.36 0.29 0.23 0.14 0.16 0.16 0.17
0.02 0.11 0.19 0.15 0.21 0.23 0.27 0.22 0.22 0.29 0.18 0.18 0.51 1.06 1.34 1.17 1.18 1.14 1.07 0.95 0.76 0.59 0.53 0.66 0.75 0.83 0.80 0.74 0.53 0.47 0.37 0.30 0.23 0.27 0.27 0.29 0.40 0.35 0.28 0.23 0.14 0.14 0.18

GFSSE_prec_precacc_117.txt.gz
Total_Precipitation_Accumulation
0.50 0.47 0.13 0.14 0.06 0.02 0.00 0.00 0.00 0.00 0.00 0.00 0.00 0.00 0.00 0.00 0.00 0.00 0.00 0.00 0.01 0.03 0.02 0.02 0.02 0.07 0.11 0.17 0.12 0.05 0.07 0.12 0.26 0.30 0.28 0.45 0.31 0.21 0.18 0.29 0.25 0.19 0.49
1.09 0.73 0.87 0.36 0.08 0.04 0.01 0.01 0.00 0.00 0.00 0.00 0.00 0.00 0.00 0.00 0.00 0.00 0.00 0.01 0.01 0.02 0.02 0.02 0.05 0.09 0.09 0.09 0.02 0.01 0.02 0.10 0.11 0.14 0.28 0.46 0.34 0.21 0.20 0.31 0.30 0.26 0.40
1.61 1.09 1.15 1.28 0.66 0.30 0.10 0.03 0.01 0.00 0.01 0.00 0.00 0.00 0.01 0.01 0.00 0.01 0.01 0.01 0.00 0.02 0.03 0.04 0.11 0.12 0.06 0.02 0.00 0.00 0.00 0.03 0.05 0.13 0.40 0.29 0.22 0.27 0.22 0.27 0.25 0.30 0.27
1.05 0.70 1.40 1.48 1.14 0.79 0.44 0.16 0.04 0.01 0.01 0.00 0.00 0.04 0.04 0.04 0.07 0.04 0.03 0.01 0.02 0.05 0.07 0.04 0.10 0.11 0.03 0.01 0.00 0.00 0.00 0.01 0.02 0.07 0.27 0.24 0.23 0.38 0.26 0.45 0.33 0.19 0.13
1.00 0.51 0.91 1.32 1.38 1.02 0.60 0.36 0.16 0.07 0.03 0.01 0.01 0.02 0.00 0.03 0.04 0.10 0.13 0.02 0.03 0.11 0.19 0.15 0.20 0.08 0.01 0.00 0.00 0.00 0.00 0.01 0.03 0.15 0.17 0.31 0.23 0.64 0.53 0.51 0.55 0.46 0.28
1.33 0.98 0.91 1.46 1.78 2.22 1.41 0.76 0.42 0.20 0.05 0.05 0.05 0.01 0.04 0.05 0.15 0.39 0.40 0.19 0.20 0.24 0.33 0.32 0.26 0.05 0.00 0.00 0.00 0.00 0.00 0.03 0.08 0.22 0.13 0.26 0.27 0.45 0.54 0.41 0.27 0.32 0.16
2.24 2.01 1.35 2.09 2.88 4.08 4.60 3.34 2.23 1.26 0.75 0.50 0.50 0.63 0.44 0.32 0.69 0.59 0.40 0.43 0.36 0.32 0.33 0.48 0.33 0.04 0.00 0.00 0.00 0.00 0.01 0.08 0.09 0.23 0.26 0.30 0.42 0.45 0.38 0.34 0.32 0.28 0.17
3.15 2.80 2.71 2.24 2.69 3.63 5.96 6.17 5.52 5.61 3.44 1.61 1.20 1.15 1.14 0.96 0.71 0.43 0.37 0.53 0.28 0.20 0.33 0.27 0.09 0.02 0.00 0.00 0.00 0.00 0.00 0.07 0.06 0.25 0.27 0.23 0.30 0.52 0.15 0.12 0.29 0.27 0.13
5.65 5.53 4.88 3.86 2.97 2.28 2.98 4.30 4.64 4.16 4.48 3.89 2.75 1.81 2.34 1.74 1.20 0.59 0.42 0.51 0.70 0.61 0.45 0.13 0.15 0.17 0.06 0.12 0.11 0.03 0.02 0.05 0.10 0.09 0.16 0.22 0.62 0.62 0.16 0.12 0.18 0.17 0.10
8.06 7.51 5.81 4.85 3.14 1.52 1.88 2.17 2.50 3.79 2.73 2.29 3.12 2.74 2.11 1.52 1.17 0.94 0.82 0.83 0.83 0.75 0.95 1.16 0.96 0.84 0.53 0.36 0.29 0.16 0.01 0.00 0.15 0.10 0.27 0.23 0.54 0.74 0.22 0.19 0.11 0.08 0.05
6.02 6.49 6.28 4.34 2.99 1.51 0.99 1.09 1.10 2.21 2.80 2.38 1.22 2.04 2.08 1.51 1.18 1.06 1.02 1.10 1.43 1.30 1.20 0.77 0.54 0.36 0.34 0.32 0.31 0.34 0.17 0.06 0.16 0.19 0.20 0.32 0.55 0.78 0.52 0.16 0.05 0.03 0.04
3.37 3.56 5.21 4.44 3.07 2.19 1.64 1.18 0.78 1.11 2.00 2.61 1.60 1.02 1.31 1.16 0.85 0.65 0.73 0.76 0.84 1.02 0.87 0.74 0.62 0.42 0.33 0.28 0.28 0.30 0.27 0.22 0.15 0.20 0.12 0.24 0.56 0.70 0.41 0.15 0.03 0.01 0.02
1.24 1.55 2.35 3.59 4.08 3.12 1.90 1.37 0.74 0.86 1.57 2.60 2.31 0.97 0.94 1.03 0.88 0.54 0.43 0.52 0.53 0.77 0.78 0.96 0.76 0.49 0.28 0.20 0.17 0.20 0.28 0.29 0.22 0.19 0.25 0.31 0.42 0.43 0.27 0.16 0.06 0.02 0.02
0.71 0.94 1.78 2.18 2.19 2.50 2.55 1.40 0.80 0.50 1.12 1.86 2.35 1.02 0.90 0.73 0.82 0.37 0.13 0.22 0.33 0.32 0.45 0.96 1.01 0.61 0.44 0.35 0.25 0.26 0.23 0.32 0.29 0.21 0.30 0.36 0.41 0.53 0.31 0.18 0.15 0.11 0.02
0.46 0.69 1.26 1.07 0.83 0.96 1.67 1.92 1.10 0.70 0.80 1.44 2.16 0.95 0.51 0.43 0.60 0.33 0.12 0.14 0.18 0.13 0.25 0.43 0.68 0.57 0.43 0.36 0.37 0.39 0.17 0.15 0.24 0.21 0.29 0.60 0.61 0.65 0.47 0.23 0.11 0.07 0.02
0.38 0.57 0.92 0.73 0.72 0.61 0.82 1.34 1.64 0.86 0.83 1.19 1.55 1.01 0.51 0.36 0.36 0.32 0.17 0.15 0.13 0.12 0.20 0.36 0.61 0.61 0.55 0.36 0.37 0.24 0.16 0.18 0.17 0.18 0.20 0.41 0.54 0.67 0.54 0.46 0.30 0.12 0.08
0.41 0.62 1.01 1.26 0.62 0.77 0.81 0.92 1.36 1.12 0.67 0.78 1.15 1.18 0.75 0.46 0.23 0.27 0.29 0.32 0.19 0.12 0.21 0.41 0.59 0.75 0.62 0.49 0.36 0.24 0.23 0.24 0.18 0.14 0.19 0.19 0.24 0.39 0.54 0.86 0.97 0.81 0.68
0.37 0.45 0.95 1.52 0.94 0.85 0.84 0.94 1.06 1.03 0.82 0.57 0.75 0.88 0.55 0.45 0.27 0.26 0.32 0.48 0.43 0.23 0.20 0.29 0.45 0.79 0.58 0.40 0.30 0.26 0.24 0.26 0.19 0.17 0.13 0.18 0.25 0.21 0.27 0.56 1.52 2.12 1.74
0.22 0.33 0.72 1.02 1.17 1.13 0.91 0.93 0.85 0.78 0.93 0.63 0.66 0.57 0.52 0.50 0.30 0.20 0.32 0.43 0.47 0.41 0.31 0.25 0.36 0.51 0.53 0.42 0.27 0.20 0.21 0.17 0.16 0.20 0.20 0.22 0.29 0.34 0.23 0.27 0.59 1.00 0.73
0.17 0.43 0.85 0.92 1.07 1.07 0.77 0.64 0.61 0.71 0.75 0.78 0.68 0.47 0.57 0.55 0.35 0.22 0.31 0.60 0.54 0.46 0.33 0.23 0.40 0.49 0.39 0.44 0.52 0.25 0.27 0.21 0.16 0.13 0.17 0.26 0.29 0.48 0.49 0.34 0.39 0.47 0.46
0.12 0.37 0.48 0.71 0.88 0.60 0.38 0.33 0.37 0.42 0.50 0.78 0.77 0.49 0.53 0.68 0.50 0.32 0.25 0.43 0.81 0.63 0.40 0.23 0.33 0.51 0.61 0.44 0.75 0.78 0.51 0.37 0.20 0.17 0.15 0.18 0.21 0.27 0.61 0.62 0.34 0.37 0.50
0.16 0.38 0.47 0.32 0.27 0.28 0.28 0.16 0.12 0.17 0.29 0.63 0.92 0.60 0.63 0.69 0.59 0.51 0.26 0.21 0.41 0.70 0.73 0.39 0.29 0.48 0.54 0.51 0.52 0.60 0.83 0.86 0.56 0.33 0.29 0.17 0.16 0.23 0.22 0.40 0.43 0.32 0.44
0.08 0.12 0.24 0.13 0.07 0.07 0.10 0.13 0.11 0.16 0.32 1.03 1.33 0.98 0.70 0.69 0.61 0.60 0.47 0.37 0.32 0.52 0.66 0.59 0.32 0.27 0.59 0.53 0.38 0.41 0.49 0.46 0.33 0.30 0.31 0.25 0.18 0.16 0.16 0.18 0.22 0.24 0.24
0.03 0.05 0.23 0.13 0.06 0.05 0.05 0.05 0.07 0.11 0.16 0.50 1.03 0.94 0.73 0.92 0.77 0.56 0.67 0.67 0.45 0.41 0.52 0.52 0.40 0.34 0.77 0.63 0.60 0.29 0.18 0.21 0.38 0.39 0.29 0.33 0.34 0.25 0.14 0.17 0.14 0.16 0.17
0.06 0.08 0.20 0.16 0.16 0.08 0.11 0.15 0.26 0.20 0.14 0.23 0.89 1.22 0.97 0.97 1.04 0.88 0.75 0.81 0.65 0.49 0.55 0.74 0.63 0.57 0.75 0.52 0.27 0.29 0.23 0.22 0.32 0.34 0.36 0.33 0.36 0.29 0.23 0.15 0.16 0.16 0.17
0.02 0.11 0.19 0.15 0.21 0.23 0.27 0.22 0.22 0.29 0.18 0.18 0.51 1.07 1.35 1.18 1.19 1.14 1.07 0.96 0.77 0.60 0.54 0.67 0.75 0.84 0.81 0.74 0.54 0.47 0.37 0.30 0.23 0.27 0.27 0.30 0.41 0.36 0.28 0.24 0.14 0.14 0.19

GFSSE_prec_precacc_120.txt.gz
Total_Precipitation_Accumulation
0.50 0.47 0.13 0.14 0.06 0.02 0.00 0.00 0.00 0.00 0.00 0.00 0.00 0.00 0.00 0.00 0.00 0.00 0.00 0.00 0.01 0.03 0.02 0.02 0.02 0.07 0.11 0.17 0.12 0.05 0.07 0.12 0.27 0.30 0.28 0.45 0.31 0.21 0.18 0.31 0.28 0.20 0.51
1.09 0.73 0.87 0.36 0.08 0.04 0.01 0.01 0.00 0.00 0.00 0.00 0.00 0.00 0.00 0.00 0.00 0.00 0.00 0.01 0.01 0.02 0.02 0.02 0.05 0.09 0.09 0.09 0.02 0.01 0.02 0.10 0.11 0.14 0.28 0.46 0.34 0.21 0.20 0.32 0.32 0.26 0.43
1.61 1.09 1.15 1.28 0.66 0.30 0.10 0.03 0.01 0.00 0.01 0.00 0.00 0.00 0.01 0.01 0.00 0.01 0.01 0.01 0.01 0.02 0.03 0.04 0.11 0.12 0.06 0.02 0.00 0.00 0.00 0.03 0.05 0.13 0.42 0.31 0.22 0.27 0.22 0.28 0.29 0.31 0.28
1.05 0.70 1.40 1.48 1.14 0.79 0.44 0.16 0.04 0.01 0.01 0.00 0.00 0.04 0.04 0.04 0.07 0.04 0.03 0.02 0.03 0.05 0.07 0.04 0.10 0.11 0.04 0.01 0.00 0.00 0.00 0.01 0.02 0.07 0.28 0.25 0.23 0.38 0.26 0.47 0.45 0.22 0.14
1.00 0.51 0.91 1.32 1.38 1.02 0.60 0.36 0.16 0.07 0.03 0.01 0.01 0.02 0.00 0.03 0.04 0.10 0.13 0.02 0.03 0.12 0.19 0.15 0.21 0.08 0.01 0.00 0.00 0.00 0.00 0.01 0.03 0.16 0.18 0.31 0.23 0.64 0.53 0.55 0.70 0.61 0.33
1.33 0.98 0.91 1.46 1.78 2.22 1.41 0.76 0.42 0.20 0.05 0.05 0.05 0.01 0.04 0.05 0.15 0.39 0.40 0.19 0.20 0.24 0.33 0.32 0.29 0.06 0.00 0.00 0.00 0.00 0.00 0.03 0.08 0.37 0.26 0.29 0.29 0.49 0.56 0.43 0.28 0.34 0.20
2.24 2.01 1.35 2.09 2.88 4.08 4.60 3.34 2.23 1.26 0.75 0.50 0.50 0.63 0.44 0.32 0.69 0.59 0.40 0.43 0.36 0.32 0.33 0.48 0.34 0.04 0.00 0.00 0.00 0.00 0.01 0.08 0.20 0.96 0.35 0.32 0.46 0.53 0.40 0.35 0.41 0.35 0.20
3.15 2.80 2.71 2.24 2.69 3.63 5.96 6.17 5.52 5.61 3.44 1.61 1.20 1.15 1.14 0.96 0.71 0.43 0.37 0.53 0.28 0.20 0.33 0.27 0.09 0.02 0.00 0.00 0.00 0.00 0.00 0.07 0.09 0.33 0.28 0.25 0.37 0.57 0.17 0.15 0.36 0.44 0.16
5.65 5.53 4.88 3.86 2.97 2.28 2.98 4.30 4.64 4.16 4.48 3.89 2.75 1.81 2.34 1.74 1.20 0.59 0.42 0.51 0.70 0.62 0.45 0.13 0.15 0.17 0.06 0.12 0.11 0.03 0.02 0.05 0.15 0.23 0.16 0.23 0.65 0.67 0.22 0.16 0.19 0.18 0.11
8.06 7.51 5.82 4.85 3.14 1.52 1.88 2.17 2.50 3.79 2.73 2.29 3.12 2.74 2.11 1.52 1.17 0.94 0.82 0.83 0.84 0.77 0.95 1.16 0.96 0.84 0.53 0.36 0.29 0.16 0.01 0.00 0.16 0.32 0.36 0.24 0.54 0.76 0.31 0.26 0.11 0.10 0.06
6.02 6.49 6.28 4.35 2.99 1.51 0.99 1.09 1.10 2.21 2.80 2.38 1.22 2.04 2.08 1.51 1.18 1.06 1.02 1.10 1.44 1.32 1.20 0.77 0.54 0.36 0.34 0.32 0.31 0.34 0.17 0.06 0.16 0.34 0.34 0.36 0.56 0.80 0.63 0.23 0.09 0.06 0.04
3.37 3.56 5.22 4.46 3.08 2.19 1.64 1.18 0.78 1.11 2.00 2.61 1.60 1.02 1.31 1.16 0.85 0.65 0.73 0.76 0.84 1.03 0.88 0.74 0.62 0.42 0.33 0.28 0.28 0.30 0.27 0.22 0.15 0.21 0.15 0.29 0.57 0.72 0.46 0.22 0.11 0.03 0.03
1.24 1.56 2.35 3.60 4.11 3.13 1.91 1.38 0.74 0.86 1.57 2.60 2.31 0.97 0.94 1.03 0.88 0.54 0.43 0.52 0.54 0.77 0.78 0.96 0.76 0.49 0.28 0.20 0.17 0.20 0.28 0.29 0.22 0.20 0.26 0.31 0.43 0.44 0.29 0.18 0.13 0.04 0.03
0.71 0.94 1.82 2.18 2.21 2.51 2.59 1.50 0.81 0.50 1.12 1.86 2.35 1.02 0.90 0.73 0.83 0.37 0.13 0.23 0.34 0.33 0.46 0.97 1.01 0.61 0.44 0.36 0.26 0.26 0.23 0.32 0.29 0.22 0.34 0.36 0.41 0.53 0.31 0.20 0.21 0.29 0.12
0.46 0.69 1.29 1.12 0.89 1.02 1.73 2.14 1.19 0.72 0.80 1.44 2.16 0.95 0.51 0.43 0.60 0.33 0.12 0.15 0.18 0.13 0.26 0.45 0.68 0.57 0.43 0.37 0.41 0.40 0.17 0.15 0.24 0.22 0.36 0.62 0.61 0.65 0.47 0.23 0.16 0.21 0.19
0.38 0.57 0.92 0.74 0.79 0.75 0.96 1.49 1.71 0.94 0.86 1.20 1.55 1.01 0.51 0.36 0.36 0.32 0.17 0.16 0.13 0.12 0.20 0.37 0.62 0.61 0.55 0.36 0.39 0.26 0.16 0.18 0.17 0.19 0.20 0.42 0.54 0.67 0.54 0.47 0.33 0.26 0.23
0.41 0.62 1.01 1.26 0.62 0.82 0.91 1.09 1.50 1.21 0.73 0.83 1.15 1.18 0.75 0.46 0.23 0.27 0.30 0.32 0.19 0.12 0.21 0.42 0.60 0.76 0.63 0.50 0.37 0.25 0.23 0.24 0.18 0.15 0.20 0.21 0.25 0.39 0.55 0.86 1.00 0.92 0.85
0.37 0.45 0.95 1.52 0.94 0.85 0.85 1.01 1.25 1.18 0.90 0.59 0.77 0.88 0.56 0.45 0.27 0.26 0.32 0.48 0.43 0.24 0.20 0.30 0.46 0.80 0.59 0.41 0.31 0.27 0.24 0.27 0.20 0.17 0.13 0.19 0.26 0.22 0.28 0.57 1.53 2.13 1.76
0.22 0.33 0.72 1.02 1.17 1.13 0.91 0.93 0.87 0.83 1.00 0.67 0.67 0.58 0.52 0.50 0.30 0.20 0.32 0.43 0.47 0.41 0.31 0.25 0.37 0.53 0.54 0.42 0.28 0.21 0.22 0.17 0.17 0.20 0.20 0.22 0.30 0.35 0.24 0.27 0.61 1.00 0.74
0.17 0.43 0.85 0.92 1.07 1.07 0.77 0.64 0.61 0.71 0.76 0.80 0.70 0.47 0.58 0.55 0.35 0.22 0.31 0.60 0.54 0.46 0.33 0.23 0.40 0.50 0.40 0.45 0.52 0.26 0.27 0.22 0.16 0.13 0.17 0.27 0.29 0.48 0.49 0.34 0.39 0.47 0.46
0.12 0.37 0.48 0.71 0.88 0.60 0.38 0.33 0.37 0.42 0.50 0.78 0.77 0.49 0.55 0.68 0.50 0.32 0.25 0.43 0.81 0.63 0.40 0.23 0.34 0.52 0.62 0.46 0.76 0.79 0.52 0.38 0.21 0.17 0.15 0.18 0.21 0.28 0.61 0.62 0.34 0.37 0.50
0.16 0.38 0.47 0.32 0.27 0.28 0.28 0.16 0.12 0.17 0.29 0.63 0.92 0.61 0.63 0.70 0.60 0.51 0.26 0.21 0.41 0.70 0.73 0.39 0.30 0.49 0.55 0.52 0.53 0.62 0.85 0.88 0.56 0.34 0.30 0.18 0.16 0.24 0.22 0.40 0.44 0.32 0.44
0.08 0.12 0.24 0.13 0.07 0.07 0.10 0.13 0.11 0.16 0.32 1.03 1.33 0.99 0.70 0.70 0.65 0.65 0.49 0.37 0.32 0.52 0.67 0.59 0.33 0.28 0.60 0.55 0.40 0.42 0.49 0.47 0.33 0.30 0.31 0.25 0.19 0.16 0.17 0.19 0.23 0.24 0.24
0.03 0.05 0.23 0.13 0.06 0.05 0.05 0.05 0.07 0.11 0.16 0.50 1.03 0.94 0.73 0.93 0.80 0.64 0.74 0.69 0.46 0.44 0.52 0.52 0.40 0.34 0.77 0.63 0.64 0.30 0.18 0.21 0.38 0.41 0.31 0.33 0.34 0.25 0.14 0.18 0.15 0.16 0.17
0.06 0.08 0.20 0.16 0.16 0.08 0.11 0.15 0.26 0.20 0.14 0.23 0.89 1.22 0.98 0.98 1.10 1.05 0.88 0.90 0.75 0.70 0.62 0.75 0.63 0.57 0.75 0.52 0.28 0.30 0.23 0.22 0.34 0.39 0.43 0.37 0.38 0.29 0.23 0.15 0.16 0.16 0.17
0.02 0.11 0.19 0.15 0.21 0.23 0.27 0.22 0.22 0.29 0.18 0.18 0.51 1.07 1.37 1.22 1.23 1.21 1.14 1.06 0.88 0.75 0.66 0.71 0.80 0.84 0.81 0.75 0.55 0.48 0.37 0.30 0.23 0.28 0.32 0.35 0.44 0.36 0.28 0.24 0.14 0.14 0.19

GFSSE_prec_precacc_126.txt.gz
Total_Precipitation_Accumulation
0.50 0.47 0.13 0.14 0.06 0.02 0.00 0.00 0.00 0.00 0.00 0.00 0.00 0.00 0.00 0.00 0.00 0.00 0.00 0.00 0.01 0.03 0.02 0.02 0.02 0.07 0.11 0.18 0.14 0.08 0.10 0.14 0.31 0.34 0.33 0.51 0.34 0.21 0.18 0.31 0.28 0.20 0.54
1.09 0.73 0.87 0.36 0.08 0.04 0.01 0.01 0.00 0.00 0.00 0.00 0.00 0.00 0.00 0.00 0.00 0.00 0.00 0.01 0.01 0.02 0.02 0.02 0.05 0.09 0.10 0.12 0.05 0.04 0.04 0.11 0.14 0.17 0.33 0.49 0.35 0.21 0.20 0.33 0.33 0.27 0.46
1.61 1.09 1.15 1.28 0.66 0.30 0.10 0.03 0.01 0.00 0.01 0.00 0.00 0.00 0.01 0.01 0.00 0.01 0.01 0.01 0.01 0.02 0.04 0.04 0.11 0.12 0.08 0.03 0.03 0.04 0.03 0.04 0.06 0.15 0.45 0.34 0.25 0.32 0.23 0.32 0.36 0.34 0.31
1.05 0.70 1.40 1.48 1.14 0.79 0.44 0.16 0.04 0.01 0.01 0.00 0.00 0.04 0.04 0.04 0.07 0.04 0.03 0.02 0.03 0.05 0.07 0.04 0.10 0.13 0.05 0.01 0.01 0.02 0.01 0.01 0.04 0.13 0.30 0.27 0.30 0.45 0.30 0.50 0.59 0.31 0.17
1.00 0.51 0.91 1.32 1.38 1.02 0.60 0.36 0.16 0.07 0.03 0.01 0.01 0.02 0.00 0.03 0.04 0.10 0.13 0.02 0.03 0.12 0.19 0.15 0.21 0.11 0.02 0.00 0.00 0.01 0.02 0.01 0.05 0.22 0.20 0.32 0.30 0.71 0.58 0.59 0.79 0.80 0.42
1.33 0.98 0.91 1.46 1.78 2.22 1.41 0.76 0.42 0.20 0.05 0.05 0.05 0.01 0.04 0.05 0.15 0.39 0.40 0.19 0.20 0.24 0.33 0.32 0.30 0.07 0.00 0.00 0.00 0.03 0.06 0.06 0.13 0.44 0.39 0.35 0.31 0.61 0.58 0.45 0.32 0.39 0.29
2.24 2.01 1.35 2.10 2.88 4.08 4.60 3.34 2.23 1.26 0.75 0.50 0.50 0.63 0.44 0.32 0.69 0.59 0.40 0.43 0.36 0.32 0.33 0.49 0.35 0.04 0.00 0.00 0.00 0.02 0.04 0.12 0.31 1.53 0.61 0.41 0.48 0.62 0.43 0.40 0.52 0.57 0.27
3.15 2.80 2.71 2.25 2.70 3.63 5.96 6.17 5.52 5.61 3.44 1.61 1.20 1.15 1.14 0.96 0.71 0.43 0.37 0.53 0.28 0.20 0.33 0.27 0.09 0.02 0.00 0.00 0.00 0.00 0.00 0.11 0.24 0.56 0.39 0.31 0.41 0.69 0.30 0.21 0.47 0.67 0.40
5.65 5.53 4.88 3.86 2.98 2.28 2.98 4.30 4.64 4.16 4.48 3.89 2.75 1.81 2.34 1.74 1.20 0.59 0.42 0.51 0.71 0.63 0.47 0.13 0.15 0.17 0.06 0.12 0.11 0.03 0.02 0.05 0.20 0.46 0.39 0.28 0.70 0.76 0.33 0.28 0.23 0.24 0.15
8.06 7.51 5.82 4.85 3.14 1.52 1.88 2.17 2.50 3.79 2.73 2.29 3.12 2.74 2.11 1.52 1.17 0.94 0.82 0.83 0.85 0.79 0.99 1.16 0.96 0.84 0.53 0.36 0.29 0.16 0.01 0.00 0.19 0.42 0.51 0.26 0.58 0.82 0.34 0.35 0.24 0.14 0.06
6.02 6.49 6.28 4.35 2.99 1.51 0.99 1.09 1.10 2.21 2.80 2.38 1.22 2.04 2.08 1.51 1.18 1.06 1.02 1.10 1.44 1.34 1.22 0.77 0.54 0.36 0.34 0.32 0.31 0.34 0.17 0.06 0.18 0.38 0.41 0.42 0.61 0.86 0.68 0.27 0.14 0.09 0.06
3.37 3.56 5.22 4.46 3.08 2.19 1.64 1.18 0.78 1.11 2.00 2.61 1.60 1.02 1.31 1.16 0.85 0.65 0.73 0.76 0.84 1.03 0.88 0.74 0.62 0.42 0.33 0.28 0.28 0.30 0.27 0.22 0.16 0.22 0.16 0.31 0.63 0.80 0.47 0.29 0.14 0.04 0.05
1.24 1.56 2.37 3.61 4.12 3.14 1.91 1.38 0.74 0.86 1.57 2.60 2.31 0.97 0.94 1.03 0.88 0.54 0.43 0.52 0.54 0.77 0.78 0.96 0.76 0.49 0.28 0.20 0.17 0.20 0.28 0.29 0.23 0.21 0.27 0.32 0.47 0.57 0.31 0.19 0.18 0.14 0.19
0.71 0.94 1.84 2.25 2.26 2.56 2.71 1.60 0.82 0.51 1.12 1.86 2.35 1.02 0.90 0.73 0.83 0.37 0.13 0.23 0.34 0.33 0.46 0.97 1.01 0.61 0.44 0.36 0.27 0.26 0.23 0.32 0.29 0.25 0.35 0.36 0.43 0.68 0.41 0.22 0.23 0.42 0.34
0.46 0.69 1.30 1.15 0.91 1.07 1.85 2.46 1.41 0.91 0.99 1.54 2.16 0.96 0.51 0.43 0.60 0.33 0.12 0.15 0.18 0.13 0.26 0.45 0.68 0.57 0.43 0.37 0.41 0.47 0.20 0.16 0.26 0.25 0.36 0.62 0.64 0.70 0.55 0.27 0.17 0.23 0.21
0.38 0.57 0.92 0.74 0.81 0.80 1.09 1.75 2.00 1.39 1.43 1.67 1.67 1.03 0.61 0.41 0.36 0.32 0.17 0.16 0.13 0.12 0.20 0.37 0.62 0.61 0.55 0.37 0.39 0.27 0.21 0.19 0.19 0.21 0.21 0.42 0.55 0.70 0.61 0.49 0.34 0.27 0.28
0.41 0.62 1.01 1.26 0.62 0.82 0.94 1.19 1.68 1.46 1.25 1.54 1.74 1.46 0.95 0.65 0.31 0.31 0.30 0.32 0.19 0.12 0.21 0.42 0.60 0.76 0.63 0.51 0.39 0.26 0.23 0.25 0.21 0.17 0.20 0.21 0.26 0.41 0.60 0.92 1.04 0.95 0.88
0.37 0.45 0.95 1.52 0.94 0.85 0.85 1.02 1.30 1.34 1.22 1.04 1.23 1.49 1.28 1.06 0.64 0.42 0.36 0.48 0.43 0.24 0.20 0.30 0.46 0.80 0.59 0.41 0.31 0.28 0.24 0.27 0.21 0.17 0.13 0.19 0.26 0.22 0.28 0.61 1.56 2.17 1.77
0.22 0.33 0.72 1.02 1.17 1.13 0.91 0.93 0.87 0.86 1.09 0.77 0.89 0.93 1.13 1.57 1.38 0.67 0.47 0.49 0.52 0.44 0.32 0.26 0.38 0.53 0.54 0.42 0.28 0.22 0.22 0.18 0.17 0.20 0.20 0.22 0.30 0.35 0.24 0.27 0.61 1.00 0.74
0.17 0.43 0.85 0.92 1.07 1.07 0.77 0.64 0.61 0.71 0.78 0.83 0.76 0.77 0.97 1.07 1.01 0.98 0.92 0.86 0.71 0.57 0.39 0.26 0.40 0.50 0.40 0.46 0.53 0.26 0.28 0.22 0.16 0.13 0.17 0.27 0.29 0.48 0.49 0.34 0.39 0.47 0.46
0.12 0.37 0.48 0.71 0.88 0.60 0.38 0.33 0.37 0.42 0.50 0.83 0.84 0.55 0.77 0.98 0.93 0.79 0.82 1.00 1.15 0.80 0.52 0.35 0.43 0.54 0.64 0.47 0.78 0.80 0.53 0.39 0.21 0.17 0.15 0.18 0.21 0.28 0.61 0.62 0.34 0.37 0.50
0.16 0.38 0.47 0.32 0.27 0.28 0.28 0.16 0.12 0.17 0.29 0.63 0.95 0.69 0.72 0.81 0.76 0.88 0.67 0.68 0.81 0.98 1.04 0.65 0.53 0.71 0.75 0.69 0.57 0.65 0.86 0.89 0.57 0.34 0.30 0.18 0.16 0.24 0.23 0.40 0.44 0.32 0.44
0.08 0.12 0.24 0.13 0.07 0.07 0.10 0.13 0.11 0.16 0.32 1.03 1.33 1.00 0.74 0.78 0.75 0.79 0.73 0.65 0.64 1.06 1.07 0.76 0.46 0.51 0.77 0.74 0.59 0.51 0.50 0.47 0.33 0.30 0.31 0.25 0.19 0.16 0.17 0.19 0.23 0.24 0.24
0.03 0.05 0.23 0.13 0.06 0.05 0.05 0.05 0.07 0.11 0.16 0.50 1.03 0.94 0.74 1.02 0.95 0.80 0.92 0.96 0.80 0.62 0.71 0.62 0.52 0.52 1.01 0.78 0.99 0.46 0.22 0.21 0.38 0.41 0.31 0.33 0.34 0.25 0.14 0.18 0.15 0.16 0.17
0.06 0.08 0.20 0.16 0.16 0.08 0.11 0.15 0.26 0.20 0.14 0.23 0.89 1.22 0.98 0.99 1.17 1.18 1.12 1.24 1.21 1.27 0.89 1.13 0.90 0.81 0.98 0.71 0.35 0.34 0.33 0.27 0.34 0.40 0.44 0.39 0.39 0.29 0.23 0.16 0.16 0.16 0.17
0.02 0.11 0.19 0.15 0.21 0.23 0.27 0.22 0.22 0.29 0.18 0.18 0.51 1.07 1.37 1.22 1.23 1.22 1.19 1.17 1.05 1.08 1.21 1.39 1.66 1.53 1.47 1.22 0.81 0.72 0.53 0.38 0.25 0.29 0.34 0.37 0.47 0.37 0.28 0.24 0.14 0.14 0.19

GFSSE_prec_precacc_129.txt.gz
Total_Precipitation_Accumulation
0.50 0.47 0.13 0.14 0.06 0.02 0.00 0.00 0.00 0.00 0.00 0.00 0.00 0.00 0.00 0.00 0.00 0.00 0.00 0.00 0.01 0.03 0.02 0.02 0.02 0.07 0.12 0.18 0.14 0.08 0.10 0.14 0.31 0.34 0.36 0.52 0.34 0.21 0.18 0.31 0.28 0.20 0.56
1.09 0.73 0.87 0.36 0.08 0.04 0.01 0.01 0.00 0.00 0.00 0.00 0.00 0.00 0.00 0.00 0.00 0.00 0.00 0.01 0.01 0.02 0.02 0.02 0.05 0.09 0.10 0.12 0.05 0.04 0.04 0.11 0.14 0.17 0.34 0.50 0.35 0.21 0.20 0.33 0.34 0.28 0.46
1.61 1.09 1.15 1.28 0.66 0.30 0.10 0.03 0.01 0.00 0.01 0.00 0.00 0.00 0.01 0.01 0.00 0.01 0.01 0.02 0.01 0.02 0.04 0.04 0.11 0.12 0.08 0.03 0.03 0.04 0.03 0.04 0.06 0.15 0.45 0.34 0.27 0.36 0.23 0.32 0.38 0.41 0.32
1.05 0.70 1.40 1.48 1.14 0.79 0.44 0.16 0.04 0.01 0.01 0.00 0.00 0.04 0.04 0.04 0.07 0.04 0.03 0.02 0.04 0.06 0.07 0.04 0.10 0.13 0.05 0.01 0.01 0.02 0.01 0.01 0.04 0.13 0.30 0.27 0.31 0.50 0.31 0.50 0.62 0.42 0.17
1.00 0.51 0.91 1.32 1.38 1.02 0.60 0.36 0.16 0.07 0.03 0.01 0.01 0.02 0.00 0.03 0.04 0.10 0.13 0.02 0.03 0.12 0.19 0.15 0.22 0.11 0.02 0.00 0.00 0.01 0.02 0.01 0.05 0.22 0.20 0.32 0.34 0.74 0.59 0.60 0.83 0.94 0.48
1.33 0.98 0.91 1.46 1.78 2.22 1.41 0.76 0.42 0.20 0.05 0.05 0.05 0.01 0.04 0.05 0.15 0.39 0.40 0.19 0.20 0.24 0.33 0.32 0.30 0.07 0.00 0.00 0.00 0.03 0.06 0.06 0.13 0.44 0.39 0.35 0.31 0.66 0.59 0.45 0.32 0.41 0.38
2.24 2.01 1.35 2.10 2.88 4.08 4.60 3.34 2.23 1.26 0.75 0.50 0.50 0.63 0.44 0.32 0.69 0.59 0.40 0.43 0.36 0.32 0.33 0.49 0.35 0.04 0.00 0.00 0.00 0.02 0.04 0.12 0.31 1.54 0.62 0.42 0.49 0.68 0.49 0.43 0.57 0.68 0.39
3.15 2.80 2.71 2.25 2.70 3.63 5.96 6.17 5.52 5.61 3.44 1.61 1.20 1.15 1.14 0.96 0.71 0.43 0.37 0.53 0.28 0.20 0.33 0.27 0.09 0.02 0.00 0.00 0.00 0.00 0.00 0.11 0.25 0.56 0.39 0.31 0.41 0.70 0.33 0.26 0.54 0.71 0.51
5.65 5.53 4.88 3.86 2.98 2.28 2.98 4.30 4.64 4.16 4.48 3.89 2.75 1.81 2.34 1.74 1.20 0.59 0.42 0.51 0.71 0.63 0.47 0.13 0.15 0.17 0.06 0.12 0.11 0.03 0.02 0.05 0.20 0.46 0.39 0.28 0.71 0.77 0.34 0.29 0.26 0.32 0.20
8.06 7.51 5.82 4.85 3.14 1.52 1.88 2.18 2.50 3.79 2.73 2.29 3.12 2.74 2.11 1.52 1.17 0.94 0.82 0.83 0.85 0.79 0.99 1.16 0.96 0.84 0.53 0.36 0.29 0.16 0.01 0.00 0.19 0.42 0.51 0.26 0.58 0.84 0.35 0.37 0.27 0.17 0.07
6.02 6.49 6.29 4.35 2.99 1.51 0.99 1.10 1.10 2.21 2.80 2.38 1.22 2.04 2.08 1.51 1.18 1.06 1.02 1.10 1.44 1.34 1.22 0.77 0.54 0.36 0.34 0.32 0.31 0.34 0.17 0.06 0.18 0.38 0.41 0.42 0.61 0.89 0.75 0.32 0.15 0.09 0.06
3.37 3.57 5.25 4.48 3.09 2.19 1.64 1.18 0.78 1.11 2.00 2.61 1.60 1.02 1.31 1.16 0.85 0.65 0.73 0.76 0.84 1.03 0.88 0.74 0.62 0.42 0.33 0.28 0.28 0.30 0.27 0.22 0.16 0.22 0.16 0.31 0.64 0.81 0.51 0.32 0.22 0.06 0.05
1.24 1.56 2.39 3.63 4.15 3.15 1.92 1.38 0.74 0.86 1.58 2.61 2.31 0.97 0.94 1.03 0.88 0.54 0.43 0.52 0.54 0.77 0.78 0.96 0.76 0.49 0.28 0.20 0.17 0.20 0.28 0.29 0.23 0.21 0.27 0.32 0.48 0.61 0.37 0.21 0.22 0.19 0.21
0.71 0.94 1.85 2.26 2.27 2.58 2.72 1.60 0.83 0.54 1.14 1.87 2.35 1.03 0.91 0.74 0.83 0.37 0.13 0.23 0.34 0.33 0.46 0.97 1.01 0.61 0.44 0.36 0.27 0.26 0.23 0.32 0.29 0.25 0.35 0.36 0.43 0.71 0.50 0.28 0.24 0.48 0.37
0.46 0.69 1.30 1.15 0.91 1.07 1.85 2.46 1.41 0.96 1.10 1.61 2.17 0.97 0.54 0.46 0.61 0.34 0.12 0.15 0.18 0.13 0.26 0.45 0.68 0.57 0.43 0.37 0.41 0.47 0.20 0.16 0.26 0.25 0.36 0.62 0.64 0.71 0.63 0.33 0.19 0.27 0.22
0.38 0.57 0.92 0.74 0.81 0.80 1.09 1.75 2.00 1.40 1.45 1.77 1.80 1.08 0.78 0.59 0.56 0.40 0.19 0.16 0.13 0.12 0.21 0.37 0.62 0.61 0.55 0.37 0.39 0.27 0.21 0.19 0.19 0.21 0.21 0.42 0.55 0.71 0.63 0.53 0.37 0.29 0.29
0.41 0.62 1.01 1.26 0.62 0.82 0.94 1.19 1.68 1.46 1.26 1.60 1.93 1.67 1.09 0.93 0.54 0.54 0.44 0.39 0.23 0.14 0.22 0.42 0.60 0.76 0.63 0.51 0.39 0.26 0.23 0.25 0.21 0.17 0.20 0.21 0.26 0.41 0.60 0.93 1.07 0.98 0.89
0.37 0.45 0.95 1.52 0.94 0.85 0.85 1.02 1.30 1.34 1.22 1.06 1.27 1.57 1.42 1.25 1.05 0.82 0.54 0.56 0.57 0.39 0.29 0.34 0.47 0.80 0.59 0.41 0.31 0.28 0.24 0.27 0.21 0.17 0.13 0.19 0.26 0.22 0.28 0.61 1.56 2.17 1.79
0.22 0.33 0.72 1.02 1.17 1.13 0.91 0.93 0.87 0.86 1.09 0.77 0.89 0.94 1.18 1.67 1.72 1.32 1.16 1.03 0.85 0.66 0.47 0.38 0.45 0.57 0.54 0.42 0.28 0.22 0.22 0.18 0.17 0.20 0.20 0.22 0.30 0.35 0.24 0.27 0.61 1.00 0.74
0.17 0.43 0.85 0.92 1.07 1.07 0.77 0.64 0.61 0.71 0.78 0.83 0.76 0.77 0.97 1.08 1.05 1.14 1.35 1.46 1.25 1.00 0.63 0.42 0.49 0.59 0.45 0.47 0.54 0.27 0.29 0.22 0.16 0.13 0.17 0.27 0.29 0.48 0.49 0.34 0.39 0.47 0.46
0.12 0.37 0.48 0.71 0.88 0.60 0.38 0.33 0.37 0.42 0.50 0.83 0.84 0.55 0.77 0.98 0.94 0.84 1.13 1.97 2.12 1.29 0.84 0.68 0.69 0.73 0.80 0.62 0.92 0.83 0.55 0.39 0.24 0.17 0.15 0.18 0.21 0.28 0.61 0.62 0.34 0.37 0.50
0.16 0.38 0.47 0.32 0.27 0.28 0.28 0.16 0.12 0.17 0.29 0.63 0.95 0.69 0.72 0.81 0.76 0.88 0.69 0.82 1.39 1.67 1.41 0.92 0.81 1.01 0.96 0.95 0.92 0.79 0.91 0.94 0.61 0.34 0.30 0.18 0.16 0.24 0.23 0.40 0.44 0.32 0.44
0.08 0.12 0.24 0.13 0.07 0.07 0.10 0.13 0.11 0.16 0.32 1.03 1.33 1.00 0.74 0.78 0.75 0.79 0.74 0.67 0.81 1.47 1.50 1.06 0.65 0.69 0.98 0.94 0.86 0.73 0.67 0.54 0.35 0.32 0.32 0.25 0.19 0.16 0.17 0.19 0.23 0.24 0.24
0.03 0.05 0.23 0.13 0.06 0.05 0.05 0.05 0.07 0.11 0.16 0.50 1.03 0.94 0.74 1.02 0.95 0.80 0.92 0.96 0.82 0.80 1.14 1.06 0.78 0.66 1.14 0.90 1.14 0.56 0.31 0.31 0.47 0.47 0.36 0.35 0.35 0.25 0.14 0.18 0.15 0.16 0.17
0.06 0.08 0.20 0.16 0.16 0.08 0.11 0.15 0.26 0.20 0.14 0.23 0.89 1.22 0.98 0.99 1.17 1.18 1.12 1.24 1.22 1.28 0.95 1.42 1.27 1.12 1.20 0.89 0.49 0.45 0.47 0.42 0.45 0.47 0.46 0.41 0.41 0.29 0.23 0.16 0.16 0.16 0.17
0.02 0.11 0.19 0.15 0.21 0.23 0.27 0.22 0.22 0.29 0.18 0.18 0.51 1.07 1.37 1.22 1.23 1.22 1.19 1.17 1.05 1.09 1.22 1.43 1.76 1.72 1.70 1.39 0.96 0.88 0.66 0.53 0.35 0.41 0.41 0.41 0.48 0.37 0.28 0.24 0.14 0.14 0.19

GFSSE_prec_precacc_132.txt.gz
Total_Precipitation_Accumulation
0.50 0.47 0.13 0.14 0.06 0.02 0.00 0.00 0.00 0.00 0.00 0.00 0.00 0.00 0.00 0.00 0.00 0.00 0.00 0.00 0.01 0.04 0.02 0.02 0.02 0.07 0.12 0.18 0.14 0.08 0.10 0.14 0.31 0.34 0.36 0.52 0.34 0.21 0.18 0.31 0.28 0.20 0.56
1.09 0.73 0.87 0.36 0.08 0.04 0.01 0.01 0.00 0.00 0.00 0.00 0.00 0.00 0.00 0.00 0.00 0.00 0.00 0.01 0.01 0.03 0.02 0.02 0.05 0.09 0.10 0.12 0.05 0.04 0.04 0.11 0.14 0.17 0.35 0.51 0.36 0.22 0.20 0.34 0.36 0.29 0.47
1.61 1.09 1.15 1.28 0.66 0.30 0.10 0.03 0.01 0.00 0.01 0.00 0.00 0.00 0.01 0.01 0.00 0.01 0.01 0.02 0.01 0.02 0.04 0.04 0.11 0.12 0.08 0.03 0.03 0.04 0.03 0.04 0.06 0.15 0.45 0.37 0.30 0.37 0.23 0.32 0.41 0.43 0.33
1.05 0.70 1.40 1.48 1.14 0.79 0.44 0.16 0.04 0.01 0.01 0.00 0.00 0.04 0.04 0.04 0.07 0.04 0.03 0.02 0.04 0.06 0.07 0.04 0.10 0.13 0.05 0.01 0.01 0.02 0.01 0.01 0.04 0.13 0.30 0.27 0.37 0.51 0.32 0.51 0.65 0.47 0.18
1.00 0.51 0.91 1.32 1.38 1.02 0.60 0.36 0.16 0.07 0.03 0.01 0.01 0.02 0.00 0.03 0.04 0.10 0.13 0.02 0.03 0.12 0.19 0.15 0.22 0.11 0.02 0.00 0.00 0.01 0.02 0.01 0.05 0.22 0.20 0.32 0.37 0.77 0.60 0.60 0.87 1.00 0.58
1.33 0.98 0.91 1.46 1.78 2.22 1.41 0.76 0.42 0.20 0.05 0.05 0.05 0.01 0.04 0.05 0.15 0.39 0.40 0.19 0.20 0.24 0.33 0.32 0.30 0.07 0.00 0.00 0.00 0.03 0.06 0.06 0.13 0.44 0.39 0.35 0.32 0.68 0.59 0.46 0.32 0.42 0.45
2.24 2.01 1.35 2.10 2.88 4.08 4.60 3.34 2.23 1.26 0.75 0.50 0.50 0.63 0.44 0.32 0.69 0.59 0.40 0.43 0.36 0.32 0.33 0.49 0.35 0.04 0.00 0.00 0.00 0.02 0.04 0.12 0.31 1.54 0.62 0.42 0.49 0.72 0.51 0.46 0.60 0.76 0.46
3.15 2.80 2.71 2.25 2.70 3.63 5.96 6.17 5.52 5.61 3.44 1.61 1.20 1.15 1.14 0.96 0.71 0.43 0.37 0.53 0.28 0.20 0.34 0.27 0.09 0.02 0.00 0.00 0.00 0.00 0.00 0.11 0.25 0.56 0.39 0.31 0.42 0.75 0.35 0.27 0.55 0.74 0.65
5.65 5.53 4.88 3.86 2.98 2.28 2.98 4.30 4.64 4.16 4.48 3.89 2.75 1.81 2.34 1.74 1.20 0.59 0.42 0.51 0.71 0.63 0.47 0.13 0.15 0.17 0.06 0.12 0.11 0.03 0.02 0.05 0.20 0.46 0.39 0.28 0.71 0.80 0.39 0.32 0.27 0.33 0.23
8.06 7.51 5.82 4.85 3.14 1.52 1.89 2.19 2.53 3.83 2.74 2.29 3.12 2.74 2.11 1.52 1.17 0.94 0.82 0.83 0.85 0.79 0.99 1.16 0.96 0.84 0.53 0.36 0.29 0.16 0.01 0.00 0.19 0.42 0.51 0.26 0.59 0.86 0.40 0.43 0.31 0.18 0.07
6.02 6.49 6.29 4.35 3.00 1.52 0.99 1.10 1.11 2.28 2.87 2.38 1.22 2.04 2.08 1.51 1.18 1.06 1.02 1.10 1.44 1.34 1.22 0.77 0.54 0.36 0.34 0.32 0.31 0.34 0.17 0.06 0.18 0.38 0.41 0.42 0.61 0.90 0.79 0.39 0.21 0.18 0.07
3.37 3.57 5.25 4.49 3.10 2.20 1.65 1.18 0.78 1.12 2.04 2.65 1.64 1.03 1.32 1.16 0.85 0.65 0.73 0.76 0.84 1.03 0.88 0.74 0.62 0.42 0.33 0.28 0.28 0.30 0.27 0.22 0.16 0.22 0.16 0.31 0.64 0.81 0.52 0.35 0.31 0.15 0.09
1.24 1.56 2.39 3.63 4.15 3.15 1.92 1.38 0.74 0.86 1.59 2.64 2.37 1.05 0.98 1.06 0.90 0.54 0.43 0.52 0.54 0.77 0.78 0.96 0.76 0.49 0.28 0.20 0.17 0.20 0.28 0.29 0.23 0.21 0.27 0.32 0.48 0.61 0.38 0.22 0.25 0.26 0.28
0.71 0.94 1.85 2.26 2.27 2.58 2.72 1.61 0.83 0.55 1.16 1.90 2.38 1.08 0.99 0.82 0.91 0.42 0.14 0.23 0.34 0.33 0.46 0.97 1.01 0.61 0.44 0.36 0.27 0.26 0.23 0.32 0.29 0.25 0.35 0.36 0.43 0.71 0.52 0.30 0.24 0.54 0.48
0.46 0.69 1.30 1.15 0.91 1.07 1.85 2.46 1.41 0.97 1.13 1.66 2.25 1.07 0.64 0.54 0.68 0.41 0.17 0.17 0.19 0.14 0.26 0.46 0.69 0.57 0.43 0.37 0.41 0.47 0.20 0.16 0.26 0.25 0.36 0.62 0.64 0.71 0.66 0.41 0.22 0.32 0.26
0.38 0.57 0.92 0.74 0.81 0.80 1.09 1.75 2.00 1.40 1.45 1.78 1.84 1.17 0.91 0.73 0.65 0.51 0.27 0.23 0.18 0.15 0.21 0.38 0.63 0.62 0.56 0.37 0.39 0.27 0.21 0.19 0.19 0.21 0.21 0.42 0.55 0.71 0.64 0.58 0.42 0.34 0.29
0.41 0.62 1.01 1.26 0.62 0.82 0.94 1.19 1.68 1.46 1.26 1.60 1.94 1.70 1.17 1.00 0.66 0.69 0.60 0.51 0.36 0.25 0.26 0.45 0.64 0.83 0.66 0.52 0.40 0.26 0.23 0.25 0.21 0.17 0.20 0.21 0.26 0.41 0.60 0.93 1.08 1.01 0.89
0.37 0.45 0.95 1.52 0.94 0.85 0.85 1.02 1.30 1.34 1.22 1.06 1.27 1.57 1.42 1.27 1.11 0.93 0.70 0.76 0.85 0.68 0.46 0.41 0.52 0.89 0.66 0.45 0.32 0.31 0.25 0.27 0.21 0.17 0.13 0.19 0.26 0.22 0.28 0.61 1.57 2.18 1.79
0.22 0.33 0.72 1.02 1.17 1.13 0.91 0.93 0.87 0.86 1.09 0.77 0.89 0.94 1.18 1.67 1.72 1.33 1.24 1.33 1.27 1.28 1.16 0.76 0.56 0.65 0.62 0.49 0.31 0.26 0.25 0.18 0.17 0.20 0.20 0.22 0.30 0.35 0.24 0.27 0.61 1.00 0.74
0.17 0.43 0.85 0.92 1.07 1.07 0.77 0.64 0.61 0.71 0.78 0.83 0.76 0.77 0.97 1.08 1.05 1.14 1.36 1.60 1.59 1.46 1.19 0.96 0.84 0.75 0.59 0.62 0.67 0.41 0.40 0.24 0.19 0.13 0.18 0.27 0.29 0.48 0.49 0.34 0.39 0.47 0.46
0.12 0.37 0.48 0.71 0.88 0.60 0.38 0.33 0.37 0.42 0.50 0.83 0.84 0.55 0.77 0.98 0.94 0.84 1.13 1.97 2.14 1.36 0.90 0.94 1.19 1.13 1.03 0.87 1.15 0.92 0.69 0.45 0.28 0.18 0.15 0.20 0.21 0.28 0.61 0.62 0.34 0.37 0.50
0.16 0.38 0.47 0.32 0.27 0.28 0.28 0.16 0.12 0.17 0.29 0.63 0.95 0.69 0.72 0.81 0.76 0.88 0.69 0.82 1.40 1.71 1.55 1.09 1.08 1.34 1.23 1.17 1.20 1.10 1.01 1.05 0.64 0.34 0.30 0.18 0.16 0.24 0.23 0.40 0.44 0.32 0.44
0.08 0.12 0.24 0.13 0.07 0.07 0.10 0.13 0.11 0.16 0.32 1.03 1.33 1.00 0.74 0.78 0.75 0.79 0.74 0.67 0.81 1.47 1.54 1.17 0.82 0.93 1.32 1.28 1.14 1.03 0.93 0.63 0.48 0.34 0.33 0.25 0.19 0.16 0.17 0.19 0.23 0.24 0.25
0.03 0.05 0.23 0.13 0.06 0.05 0.05 0.05 0.07 0.11 0.16 0.50 1.03 0.94 0.74 1.02 0.95 0.80 0.92 0.96 0.82 0.80 1.14 1.13 0.91 0.83 1.29 1.18 1.71 1.03 0.57 0.49 0.64 0.58 0.47 0.40 0.38 0.25 0.14 0.18 0.15 0.16 0.17
0.06 0.08 0.20 0.16 0.16 0.08 0.11 0.15 0.26 0.20 0.14 0.23 0.89 1.22 0.98 0.99 1.17 1.18 1.12 1.24 1.22 1.28 0.95 1.44 1.35 1.24 1.35 1.02 0.59 0.87 0.93 0.76 0.88 0.62 0.51 0.44 0.45 0.29 0.24 0.16 0.16 0.16 0.17
0.02 0.11 0.19 0.15 0.21 0.23 0.27 0.22 0.22 0.29 0.18 0.18 0.51 1.07 1.37 1.22 1.23 1.22 1.19 1.17 1.05 1.09 1.22 1.43 1.77 1.74 1.75 1.51 1.09 1.01 0.91 0.81 0.57 0.53 0.45 0.42 0.50 0.38 0.33 0.30 0.16 0.16 0.20

GFSSE_prec_precacc_135.txt.gz
Total_Precipitation_Accumulation
0.50 0.47 0.13 0.14 0.06 0.02 0.00 0.00 0.00 0.00 0.00 0.00 0.00 0.00 0.00 0.00 0.00 0.00 0.00 0.00 0.01 0.04 0.02 0.02 0.02 0.07 0.12 0.18 0.14 0.08 0.10 0.14 0.31 0.34 0.36 0.52 0.34 0.22 0.18 0.31 0.28 0.20 0.56
1.09 0.73 0.87 0.36 0.08 0.04 0.01 0.01 0.00 0.00 0.00 0.00 0.00 0.00 0.00 0.00 0.00 0.00 0.00 0.01 0.01 0.03 0.02 0.02 0.05 0.09 0.10 0.12 0.05 0.04 0.04 0.11 0.14 0.17 0.35 0.51 0.36 0.22 0.20 0.34 0.36 0.29 0.47
1.61 1.09 1.15 1.28 0.66 0.30 0.10 0.03 0.01 0.00 0.01 0.00 0.00 0.00 0.01 0.01 0.00 0.01 0.01 0.02 0.01 0.02 0.04 0.04 0.11 0.12 0.08 0.03 0.03 0.04 0.03 0.04 0.06 0.15 0.45 0.38 0.31 0.38 0.23 0.32 0.42 0.45 0.33
1.05 0.70 1.40 1.48 1.14 0.79 0.44 0.16 0.04 0.01 0.01 0.00 0.00 0.04 0.04 0.04 0.07 0.04 0.03 0.02 0.04 0.06 0.07 0.04 0.10 0.13 0.05 0.01 0.01 0.02 0.01 0.01 0.04 0.13 0.30 0.27 0.38 0.52 0.33 0.51 0.66 0.48 0.19
1.00 0.51 0.91 1.32 1.38 1.02 0.60 0.36 0.16 0.07 0.03 0.01 0.01 0.02 0.00 0.03 0.04 0.10 0.13 0.02 0.03 0.12 0.19 0.15 0.22 0.11 0.02 0.00 0.00 0.01 0.02 0.01 0.05 0.22 0.20 0.32 0.42 0.81 0.60 0.61 0.87 1.04 0.68
1.33 0.98 0.91 1.46 1.78 2.22 1.41 0.76 0.42 0.20 0.05 0.05 0.05 0.01 0.04 0.05 0.15 0.39 0.40 0.19 0.20 0.24 0.33 0.32 0.30 0.07 0.00 0.00 0.00 0.03 0.06 0.06 0.13 0.44 0.39 0.37 0.38 0.81 0.64 0.46 0.33 0.44 0.56
2.24 2.01 1.35 2.10 2.88 4.08 4.60 3.34 2.23 1.26 0.75 0.50 0.50 0.63 0.44 0.32 0.69 0.59 0.40 0.43 0.36 0.32 0.33 0.49 0.35 0.04 0.00 0.00 0.00 0.02 0.04 0.12 0.31 1.54 0.62 0.42 0.51 0.80 0.59 0.47 0.61 0.78 0.51
3.15 2.80 2.71 2.25 2.70 3.63 5.96 6.17 5.52 5.61 3.44 1.61 1.20 1.15 1.14 0.97 0.74 0.44 0.37 0.53 0.29 0.20 0.34 0.27 0.09 0.02 0.00 0.00 0.00 0.00 0.00 0.11 0.25 0.56 0.39 0.31 0.42 0.78 0.45 0.32 0.57 0.76 0.71
5.65 5.53 4.88 3.86 2.98 2.28 2.98 4.30 4.65 4.21 4.53 3.90 2.75 1.81 2.35 1.78 1.22 0.59 0.42 0.52 0.75 0.65 0.48 0.13 0.15 0.17 0.06 0.12 0.11 0.03 0.02 0.05 0.20 0.46 0.39 0.28 0.71 0.82 0.49 0.39 0.32 0.34 0.23
8.06 7.51 5.82 4.85 3.14 1.53 1.89 2.19 2.56 3.88 2.84 2.41 3.20 2.76 2.12 1.57 1.21 0.94 0.83 0.85 0.88 0.80 1.00 1.17 0.96 0.84 0.53 0.36 0.29 0.16 0.01 0.00 0.19 0.42 0.51 0.26 0.59 0.87 0.42 0.47 0.36 0.20 0.08
6.02 6.49 6.29 4.35 3.00 1.52 1.00 1.11 1.12 2.29 2.92 2.47 1.31 2.12 2.11 1.51 1.19 1.08 1.02 1.11 1.45 1.34 1.22 0.77 0.54 0.36 0.34 0.32 0.31 0.34 0.17 0.06 0.18 0.38 0.41 0.42 0.61 0.90 0.81 0.44 0.25 0.25 0.20
3.37 3.57 5.25 4.49 3.10 2.20 1.65 1.18 0.78 1.13 2.05 2.68 1.72 1.11 1.38 1.21 0.87 0.68 0.78 0.80 0.88 1.06 0.90 0.75 0.62 0.42 0.33 0.28 0.28 0.30 0.27 0.22 0.16 0.22 0.16 0.31 0.64 0.81 0.53 0.38 0.32 0.16 0.17
1.24 1.56 2.39 3.63 4.15 3.15 1.92 1.38 0.74 0.86 1.59 2.65 2.40 1.10 1.06 1.19 0.99 0.58 0.44 0.54 0.55 0.79 0.80 0.98 0.76 0.49 0.28 0.20 0.17 0.20 0.28 0.29 0.23 0.21 0.27 0.32 0.48 0.61 0.39 0.24 0.26 0.28 0.32
0.71 0.94 1.85 2.26 2.27 2.58 2.72 1.61 0.83 0.55 1.16 1.90 2.40 1.10 1.04 0.87 0.97 0.46 0.18 0.26 0.37 0.35 0.47 0.98 1.02 0.61 0.44 0.36 0.27 0.26 0.23 0.32 0.29 0.25 0.35 0.36 0.43 0.71 0.53 0.30 0.25 0.55 0.51
0.46 0.69 1.30 1.15 0.91 1.07 1.85 2.46 1.41 0.97 1.13 1.66 2.26 1.11 0.73 0.61 0.72 0.44 0.21 0.21 0.23 0.17 0.30 0.48 0.72 0.58 0.43 0.37 0.41 0.47 0.20 0.16 0.26 0.25 0.36 0.62 0.64 0.71 0.67 0.43 0.23 0.32 0.27
0.38 0.57 0.92 0.74 0.81 0.80 1.09 1.75 2.00 1.40 1.45 1.78 1.84 1.17 0.92 0.75 0.70 0.57 0.37 0.31 0.25 0.22 0.31 0.49 0.72 0.65 0.58 0.38 0.39 0.27 0.21 0.19 0.19 0.21 0.21 0.42 0.55 0.71 0.66 0.62 0.47 0.41 0.32
0.41 0.62 1.01 1.26 0.62 0.82 0.94 1.19 1.68 1.46 1.26 1.60 1.94 1.70 1.17 1.00 0.66 0.71 0.69 0.63 0.50 0.40 0.42 0.60 0.79 0.90 0.71 0.56 0.40 0.27 0.24 0.26 0.21 0.17 0.20 0.21 0.26 0.41 0.61 0.94 1.14 1.06 0.94
0.37 0.45 0.95 1.52 0.94 0.85 0.85 1.02 1.30 1.34 1.22 1.06 1.27 1.57 1.42 1.27 1.11 0.93 0.70 0.77 0.89 0.77 0.67 0.81 1.03 1.46 0.89 0.52 0.33 0.33 0.28 0.30 0.21 0.17 0.13 0.19 0.27 0.22 0.29 0.62 1.58 2.21 1.81
0.22 0.33 0.72 1.02 1.17 1.13 0.91 0.93 0.87 0.86 1.09 0.77 0.89 0.94 1.18 1.67 1.72 1.33 1.24 1.33 1.27 1.29 1.36 1.60 1.80 1.92 1.45 0.87 0.39 0.29 0.30 0.20 0.19 0.21 0.20 0.22 0.30 0.35 0.24 0.29 0.63 1.01 0.77
0.17 0.43 0.85 0.92 1.07 1.07 0.77 0.64 0.61 0.71 0.78 0.83 0.76 0.77 0.97 1.08 1.05 1.14 1.36 1.60 1.59 1.46 1.19 0.99 1.09 1.24 1.23 1.05 0.79 0.44 0.41 0.27 0.23 0.15 0.18 0.27 0.29 0.48 0.49 0.34 0.40 0.49 0.49
0.12 0.37 0.48 0.71 0.88 0.60 0.38 0.33 0.37 0.42 0.50 0.83 0.84 0.55 0.77 0.98 0.94 0.84 1.13 1.97 2.14 1.36 0.90 0.94 1.21 1.21 1.09 0.95 1.28 0.98 0.70 0.46 0.30 0.19 0.16 0.21 0.21 0.28 0.61 0.62 0.34 0.37 0.50
0.16 0.38 0.47 0.32 0.27 0.28 0.28 0.16 0.12 0.17 0.29 0.63 0.95 0.69 0.72 0.81 0.76 0.88 0.69 0.82 1.40 1.71 1.55 1.09 1.08 1.34 1.23 1.18 1.27 1.21 1.08 1.09 0.64 0.35 0.31 0.18 0.16 0.24 0.23 0.40 0.44 0.32 0.44
0.08 0.12 0.24 0.13 0.07 0.07 0.10 0.13 0.11 0.16 0.32 1.03 1.33 1.00 0.74 0.78 0.75 0.79 0.74 0.67 0.81 1.47 1.54 1.17 0.82 0.94 1.32 1.29 1.17 1.10 1.05 0.73 0.53 0.34 0.33 0.25 0.19 0.16 0.17 0.19 0.23 0.24 0.25
0.03 0.05 0.23 0.13 0.06 0.05 0.05 0.05 0.07 0.11 0.16 0.50 1.03 0.94 0.74 1.02 0.95 0.80 0.92 0.96 0.82 0.80 1.14 1.13 0.91 0.83 1.30 1.19 1.72 1.15 0.72 0.64 0.85 0.66 0.48 0.40 0.39 0.25 0.14 0.18 0.15 0.16 0.17
0.06 0.08 0.20 0.16 0.16 0.08 0.11 0.15 0.26 0.20 0.14 0.23 0.89 1.22 0.98 0.99 1.17 1.18 1.12 1.24 1.22 1.28 0.95 1.44 1.35 1.24 1.36 1.04 0.60 0.91 1.14 0.99 1.21 1.23 0.87 0.52 0.50 0.31 0.24 0.18 0.18 0.18 0.18
0.02 0.11 0.19 0.15 0.21 0.23 0.27 0.22 0.22 0.29 0.18 0.19 0.51 1.07 1.37 1.22 1.23 1.22 1.19 1.17 1.05 1.09 1.22 1.43 1.77 1.74 1.75 1.52 1.11 1.02 0.93 0.87 0.67 0.98 1.12 0.81 0.62 0.43 0.34 0.31 0.16 0.17 0.21

GFSSE_prec_precacc_141.txt.gz
Total_Precipitation_Accumulation
0.50 0.47 0.13 0.14 0.06 0.02 0.00 0.00 0.00 0.00 0.00 0.00 0.00 0.00 0.00 0.00 0.00 0.00 0.00 0.00 0.01 0.04 0.02 0.02 0.02 0.07 0.12 0.18 0.14 0.08 0.10 0.14 0.31 0.34 0.36 0.53 0.34 0.22 0.18 0.31 0.32 0.23 0.57
1.09 0.73 0.87 0.36 0.08 0.04 0.01 0.01 0.00 0.00 0.00 0.00 0.00 0.00 0.00 0.00 0.00 0.00 0.00 0.01 0.01 0.03 0.02 0.02 0.05 0.09 0.10 0.12 0.05 0.04 0.04 0.11 0.14 0.17 0.35 0.51 0.36 0.22 0.20 0.34 0.46 0.34 0.47
1.61 1.09 1.15 1.28 0.66 0.30 0.10 0.03 0.01 0.00 0.01 0.00 0.00 0.00 0.01 0.01 0.00 0.01 0.01 0.02 0.01 0.02 0.04 0.04 0.11 0.12 0.08 0.03 0.03 0.04 0.03 0.04 0.06 0.15 0.46 0.39 0.32 0.38 0.23 0.32 0.44 0.50 0.34
1.05 0.70 1.40 1.48 1.14 0.79 0.44 0.16 0.04 0.01 0.01 0.00 0.00 0.04 0.04 0.04 0.07 0.04 0.03 0.02 0.04 0.06 0.07 0.04 0.10 0.13 0.05 0.01 0.01 0.02 0.01 0.01 0.04 0.13 0.30 0.28 0.39 0.53 0.33 0.52 0.67 0.49 0.19
1.00 0.51 0.91 1.32 1.38 1.02 0.60 0.36 0.16 0.07 0.03 0.01 0.01 0.02 0.00 0.05 0.05 0.11 0.13 0.02 0.03 0.12 0.19 0.15 0.22 0.11 0.02 0.00 0.00 0.01 0.02 0.01 0.05 0.22 0.22 0.34 0.47 0.86 0.61 0.61 0.88 1.07 0.74
1.33 0.98 0.91 1.46 1.78 2.22 1.41 0.76 0.42 0.20 0.05 0.05 0.05 0.01 0.10 0.15 0.22 0.44 0.40 0.19 0.20 0.24 0.33 0.32 0.30 0.07 0.00 0.00 0.00 0.03 0.06 0.06 0.13 0.44 0.44 0.37 0.40 1.00 0.71 0.48 0.35 0.47 0.63
2.24 2.01 1.35 2.11 2.88 4.08 4.60 3.34 2.23 1.26 0.75 0.50 0.50 0.63 0.48 0.41 0.79 0.66 0.43 0.43 0.36 0.33 0.33 0.49 0.35 0.04 0.00 0.00 0.00 0.02 0.04 0.12 0.31 1.54 0.62 0.42 0.55 0.91 0.69 0.54 0.66 0.81 0.56
3.15 2.80 2.71 2.25 2.70 3.63 5.96 6.17 5.52 5.61 3.44 1.61 1.20 1.15 1.15 1.05 0.82 0.51 0.40 0.54 0.32 0.25 0.36 0.30 0.12 0.03 0.00 0.00 0.00 0.00 0.00 0.11 0.25 0.56 0.40 0.31 0.46 0.81 0.53 0.43 0.68 0.82 0.79
5.65 5.53 4.88 3.86 2.99 2.28 2.99 4.30 4.65 4.21 4.54 3.91 2.76 1.81 2.36 1.84 1.28 0.66 0.48 0.59 0.78 0.69 0.51 0.17 0.19 0.19 0.06 0.12 0.11 0.03 0.02 0.05 0.20 0.46 0.39 0.29 0.72 0.83 0.52 0.42 0.36 0.39 0.29
8.06 7.51 5.82 4.85 3.14 1.53 1.90 2.19 2.56 3.88 2.85 2.42 3.25 2.85 2.20 1.62 1.23 0.98 0.84 0.88 0.90 0.83 1.01 1.20 1.00 0.86 0.53 0.36 0.29 0.16 0.01 0.00 0.19 0.42 0.52 0.27 0.59 0.87 0.43 0.51 0.40 0.26 0.17
6.02 6.49 6.29 4.35 3.00 1.52 1.00 1.11 1.12 2.29 2.92 2.49 1.38 2.24 2.27 1.64 1.36 1.20 1.06 1.16 1.53 1.38 1.26 0.82 0.60 0.39 0.34 0.32 0.31 0.34 0.17 0.06 0.18 0.38 0.41 0.43 0.61 0.90 0.82 0.48 0.26 0.28 0.30
3.37 3.57 5.25 4.49 3.10 2.20 1.65 1.18 0.78 1.13 2.06 2.72 1.75 1.18 1.51 1.48 1.19 1.10 1.17 1.03 1.06 1.18 0.98 0.81 0.68 0.47 0.33 0.28 0.28 0.30 0.27 0.22 0.16 0.22 0.16 0.31 0.64 0.81 0.54 0.42 0.33 0.19 0.25
1.24 1.56 2.39 3.63 4.15 3.15 1.92 1.38 0.74 0.86 1.59 2.65 2.40 1.11 1.09 1.26 1.16 0.86 0.76 0.98 0.94 1.12 0.93 1.03 0.79 0.51 0.28 0.20 0.17 0.21 0.29 0.29 0.23 0.22 0.29 0.32 0.48 0.61 0.40 0.28 0.28 0.32 0.39
0.71 0.94 1.85 2.26 2.27 2.58 2.72 1.61 0.83 0.55 1.16 1.90 2.40 1.10 1.05 0.88 1.03 0.61 0.36 0.51 0.73 0.77 0.84 1.28 1.21 0.77 0.56 0.42 0.27 0.27 0.25 0.34 0.29 0.25 0.36 0.38 0.43 0.72 0.53 0.32 0.28 0.57 0.57
0.46 0.69 1.30 1.15 0.91 1.07 1.85 2.46 1.41 0.97 1.13 1.66 2.26 1.11 0.73 0.61 0.73 0.46 0.28 0.34 0.39 0.44 0.66 0.87 1.07 0.90 0.71 0.60 0.52 0.51 0.22 0.17 0.26 0.25 0.37 0.66 0.67 0.72 0.68 0.46 0.25 0.33 0.30
0.38 0.57 0.92 0.74 0.81 0.80 1.09 1.75 2.00 1.40 1.45 1.78 1.84 1.17 0.92 0.75 0.70 0.57 0.38 0.36 0.35 0.39 0.55 0.80 1.14 1.03 0.88 0.72 0.65 0.45 0.37 0.27 0.22 0.21 0.21 0.45 0.57 0.73 0.66 0.65 0.53 0.44 0.34
0.41 0.62 1.01 1.26 0.62 0.82 0.94 1.19 1.68 1.46 1.26 1.60 1.94 1.70 1.17 1.00 0.66 0.71 0.69 0.63 0.51 0.47 0.56 0.84 1.12 1.25 1.04 0.93 0.83 0.82 0.74 0.64 0.46 0.25 0.23 0.22 0.27 0.42 0.61 0.95 1.20 1.20 1.08
0.37 0.45 0.95 1.52 0.94 0.85 0.85 1.02 1.30 1.34 1.22 1.06 1.27 1.57 1.42 1.27 1.11 0.93 0.70 0.77 0.89 0.77 0.68 0.82 1.06 1.61 1.49 1.09 0.73 0.74 0.98 1.02 0.82 0.59 0.27 0.27 0.28 0.22 0.31 0.63 1.58 2.27 1.95
0.22 0.33 0.72 1.02 1.17 1.13 0.91 0.93 0.87 0.86 1.09 0.77 0.89 0.94 1.18 1.67 1.72 1.33 1.24 1.33 1.27 1.29 1.36 1.60 1.80 1.93 1.54 1.22 0.88 0.66 0.62 0.59 0.46 0.40 0.33 0.32 0.35 0.37 0.24 0.32 0.67 1.02 0.79
0.17 0.43 0.85 0.92 1.07 1.07 0.77 0.64 0.61 0.71 0.78 0.83 0.76 0.77 0.97 1.08 1.05 1.14 1.36 1.60 1.59 1.46 1.19 0.99 1.09 1.24 1.23 1.08 0.98 0.69 0.62 0.43 0.32 0.23 0.24 0.33 0.36 0.51 0.50 0.34 0.43 0.50 0.52
0.12 0.37 0.48 0.71 0.88 0.60 0.38 0.33 0.37 0.42 0.50 0.83 0.84 0.55 0.77 0.98 0.94 0.84 1.13 1.97 2.14 1.36 0.90 0.94 1.21 1.21 1.09 0.96 1.31 1.03 0.74 0.48 0.33 0.22 0.18 0.25 0.26 0.32 0.62 0.62 0.35 0.37 0.53
0.16 0.38 0.47 0.32 0.27 0.28 0.28 0.16 0.12 0.17 0.29 0.63 0.95 0.69 0.72 0.81 0.76 0.88 0.69 0.82 1.40 1.71 1.55 1.09 1.08 1.34 1.23 1.18 1.28 1.23 1.10 1.09 0.65 0.36 0.33 0.22 0.20 0.28 0.25 0.40 0.44 0.32 0.45
0.08 0.12 0.24 0.13 0.07 0.07 0.10 0.13 0.11 0.16 0.32 1.03 1.33 1.00 0.74 0.78 0.75 0.79 0.74 0.67 0.81 1.47 1.54 1.17 0.82 0.94 1.32 1.29 1.18 1.11 1.06 0.73 0.53 0.34 0.33 0.26 0.20 0.19 0.19 0.20 0.23 0.24 0.25
0.03 0.05 0.23 0.13 0.06 0.05 0.05 0.05 0.07 0.11 0.16 0.50 1.03 0.94 0.74 1.02 0.95 0.80 0.92 0.96 0.82 0.80 1.14 1.13 0.91 0.83 1.30 1.19 1.73 1.17 0.73 0.65 0.87 0.68 0.49 0.42 0.41 0.27 0.17 0.20 0.16 0.16 0.17
0.06 0.08 0.20 0.16 0.16 0.08 0.11 0.15 0.26 0.20 0.14 0.23 0.89 1.22 0.98 0.99 1.17 1.18 1.12 1.25 1.22 1.29 0.95 1.44 1.35 1.24 1.36 1.04 0.60 0.92 1.17 1.02 1.23 1.28 0.90 0.57 0.57 0.34 0.27 0.21 0.21 0.22 0.20
0.02 0.11 0.19 0.15 0.21 0.23 0.27 0.22 0.22 0.29 0.18 0.19 0.51 1.07 1.37 1.22 1.23 1.22 1.20 1.18 1.06 1.09 1.23 1.43 1.78 1.74 1.75 1.52 1.11 1.03 0.94 0.91 0.71 1.02 1.16 0.84 0.73 0.54 0.41 0.40 0.30 0.30 0.32